WD9GET Weather Reports


Display with metric or nautical units.
time (UTC)temp
F
wind
direction
speed
MPH
gust
MPH
rain 1hr
in
rain 24hr
in
rain mn
in
humidity
%
barometer
mb
20260503021858 60 329 1.0 2.0 0.00 0.03 0.00 81 1018.9
20260503021754 60 26 1.0 2.0 0.00 0.03 0.00 81 1018.9
20260503021652 60 43 1.0 2.0 0.00 0.03 0.00 81 1018.9
20260503021618 60 332 1.0 2.0 0.00 0.03 0.00 81 1018.9
20260503021549 60 340 1.0 2.0 0.00 0.03 0.00 81 1018.9
20260503021443 60 2 1.0 2.0 0.00 0.03 0.00 81 1018.9
20260503021343 60 19 1.0 2.0 0.00 0.03 0.00 80 1018.9
20260503021243 61 359 1.0 2.0 0.00 0.03 0.00 80 1018.9
20260503021143 61 333 1.0 2.0 0.00 0.03 0.00 80 1018.8
20260503021118 61 46 1.0 2.0 0.00 0.03 0.00 81 1018.8
20260503021043 61 322 1.0 2.0 0.00 0.03 0.00 81 1018.8
20260503020943 61 350 1.0 2.0 0.00 0.03 0.00 81 1018.7
20260503020843 61 40 1.0 2.0 0.00 0.03 0.00 81 1018.7
20260503020743 61 302 1.0 2.0 0.00 0.03 0.00 81 1018.7
20260503020643 61 3 1.0 2.0 0.00 0.03 0.00 80 1018.7
20260503020617 62 63 1.0 2.0 0.00 0.03 0.00 80 1018.7
20260503020543 62 26 1.0 2.0 0.00 0.03 0.00 80 1018.7
20260503020443 62 359 1.0 2.0 0.00 0.03 0.00 80 1018.7
20260503020341 62 6 1.0 2.0 0.00 0.03 0.00 80 1018.7
20260503020241 62 14 1.0 2.0 0.00 0.03 0.00 79 1018.8
20260503020142 62 350 0.0 2.0 0.00 0.03 0.00 78 1018.8
20260503020114 62 3 0.0 2.0 0.00 0.03 0.00 78 1018.8
20260503020042 62 4 0.0 2.0 0.00 0.03 0.00 78 1018.8
20260503015942 62 10 0.0 1.0 0.00 0.03 0.00 78 1018.8
20260503015842 62 27 0.0 1.0 0.00 0.03 0.00 78 1018.8
20260503015836 62 37 0.0 1.0 0.00 0.03 0.00 78 1018.9
20260503015742 62 15 0.0 1.0 0.00 0.03 0.00 78 1018.9
20260503015720 62 26 0.0 1.0 0.00 0.03 0.00 78 1018.9
20260503015541 62 28 0.0 1.0 0.00 0.03 0.00 78 1018.9
20260503015440 62 45 0.0 1.0 0.00 0.03 0.00 77 1018.9
20260503015340 62 0 0.0 1.0 0.00 0.03 0.00 77 1018.9
20260503015240 63 0 0.0 1.0 0.00 0.03 0.00 77 1018.8
20260503015140 63 299 0.0 1.0 0.00 0.03 0.00 77 1018.8
20260503015109 63 0 0.0 1.0 0.00 0.03 0.00 77 1018.8
20260503015040 63 0 0.0 1.0 0.00 0.03 0.00 76 1018.8
20260503014940 63 0 0.0 1.0 0.00 0.03 0.00 76 1018.8
20260503014837 63 349 0.0 1.0 0.00 0.03 0.00 75 1018.7
20260503014734 63 0 0.0 1.0 0.00 0.03 0.00 75 1018.7
20260503014634 63 0 0.0 1.0 0.00 0.03 0.00 75 1018.7
20260503014609 63 59 0.0 1.0 0.00 0.03 0.00 75 1018.7
20260503014534 63 10 0.0 1.0 0.00 0.03 0.00 75 1018.6
20260503014434 63 0 0.0 1.0 0.00 0.03 0.00 74 1018.6
20260503014334 63 49 0.0 1.0 0.00 0.03 0.00 74 1018.6
20260503014234 64 0 0.0 1.0 0.00 0.03 0.00 73 1018.6
20260503014134 64 0 0.0 1.0 0.00 0.03 0.00 73 1018.6
20260503014109 64 67 0.0 1.0 0.00 0.03 0.00 73 1018.6
20260503014031 64 314 0.0 2.0 0.00 0.03 0.00 73 1018.6
20260503013931 64 36 0.0 2.0 0.00 0.03 0.00 73 1018.6
20260503013831 64 279 0.0 2.0 0.00 0.03 0.00 73 1018.6
20260503013725 64 296 0.0 2.0 0.00 0.03 0.00 72 1018.5
20260503013625 64 297 0.0 2.0 0.00 0.03 0.00 72 1018.5
20260503013610 64 38 0.0 2.0 0.00 0.03 0.00 72 1018.5
20260503013526 64 81 0.0 2.0 0.00 0.03 0.00 71 1018.5
20260503013419 64 321 0.0 2.0 0.00 0.03 0.00 71 1018.5
20260503013320 64 61 0.0 2.0 0.00 0.03 0.00 70 1018.4
20260503013220 64 63 1.0 2.0 0.00 0.03 0.00 70 1018.4
20260503013120 64 7 1.0 2.0 0.00 0.03 0.00 70 1018.4
20260503013109 64 34 1.0 2.0 0.00 0.03 0.00 70 1018.4
20260503013028 65 0 0.0 2.0 0.00 0.03 0.00 70 1018.4
20260503012917 65 0 0.0 2.0 0.00 0.03 0.00 70 1018.4
20260503012817 65 338 1.0 2.0 0.00 0.03 0.00 70 1018.4
20260503012714 65 13 0.0 2.0 0.00 0.03 0.00 71 1018.4
20260503012610 65 19 0.0 2.0 0.00 0.03 0.00 71 1018.4
20260503012510 65 44 0.0 2.0 0.00 0.03 0.00 71 1018.4
20260503012411 65 49 0.0 2.0 0.00 0.03 0.00 70 1018.4
20260503012306 65 42 0.0 2.0 0.00 0.03 0.00 70 1018.3
20260503012204 66 50 0.0 2.0 0.00 0.03 0.00 69 1018.3
20260503012104 66 0 0.0 2.0 0.00 0.03 0.00 69 1018.3
20260503012004 66 59 0.0 2.0 0.00 0.03 0.00 69 1018.3
20260503011902 66 71 0.0 2.0 0.00 0.03 0.00 68 1018.3
20260503011801 66 96 0.0 2.0 0.00 0.03 0.00 69 1018.4
20260503011659 66 296 0.0 2.0 0.00 0.03 0.00 68 1018.3
20260503011606 66 83 0.0 2.0 0.00 0.03 0.00 68 1018.3
20260503011559 66 83 0.0 2.0 0.00 0.03 0.00 68 1018.3
20260503011553 67 290 0.0 2.0 0.00 0.03 0.00 63 1018.3
20260503011456 67 0 0.0 2.0 0.00 0.03 0.00 67 1018.3
20260503011438 67 28 0.0 2.0 0.00 0.03 0.00 63 1018.3
20260503011249 67 39 1.0 2.0 0.00 0.03 0.00 63 1018.3
20260503011212 67 298 0.0 2.0 0.00 0.03 0.00 63 1018.3
20260503011044 67 17 0.0 2.0 0.00 0.03 0.00 63 1018.3
20260503010944 67 0 0.0 2.0 0.00 0.03 0.00 63 1018.3
20260503010842 68 34 0.0 2.0 0.00 0.03 0.00 64 1018.2
20260503010742 68 0 0.0 2.0 0.00 0.03 0.00 64 1018.2
20260503010642 68 71 0.0 2.0 0.00 0.03 0.00 64 1018.2
20260503010604 68 345 0.0 2.0 0.00 0.03 0.00 64 1018.2
20260503010541 68 0 0.0 2.0 0.00 0.03 0.00 63 1018.2
20260503010438 68 80 0.0 2.0 0.00 0.03 0.00 63 1018.2
20260503010335 68 41 0.0 2.0 0.00 0.03 0.00 63 1018.2
20260503010232 69 0 0.0 2.0 0.00 0.03 0.00 63 1018.2
20260503010103 69 38 0.0 2.0 0.00 0.03 0.00 61 1018.1
20260503010029 69 241 0.0 2.0 0.00 0.03 0.00 61 1018.1
20260503005919 69 0 0.0 2.0 0.00 0.03 0.00 61 1018.1
20260503005817 69 41 0.0 1.0 0.00 0.03 0.00 61 1018.1
20260503005713 69 0 0.0 1.0 0.00 0.03 0.00 61 1018.1
20260503005611 69 0 0.0 1.0 0.00 0.03 0.00 61 1018.1
20260503005600 69 38 0.0 1.0 0.00 0.03 0.00 61 1018.1
20260503005511 70 292 0.0 1.0 0.00 0.03 0.00 60 1018.1
20260503005411 70 272 0.0 1.0 0.00 0.03 0.00 60 1018.1
20260503005308 70 0 0.0 1.0 0.00 0.03 0.00 60 1018.1
20260503005205 70 327 0.0 1.0 0.00 0.03 0.00 59 1018.1
20260503005106 70 336 0.0 1.0 0.00 0.03 0.00 59 1018.0
20260503005100 70 263 0.0 1.0 0.00 0.03 0.00 59 1018.0
20260503005005 70 16 0.0 1.0 0.00 0.03 0.00 59 1018.0
20260503004855 70 0 0.0 2.0 0.00 0.03 0.00 59 1018.0
20260503004756 70 36 0.0 2.0 0.00 0.04 0.00 59 1018.0
20260503004653 70 45 0.0 2.0 0.00 0.04 0.00 58 1018.0
20260503004601 71 20 0.0 2.0 0.00 0.04 0.00 59 1017.9
20260503004550 71 7 0.0 2.0 0.00 0.04 0.00 59 1017.9
20260503004445 71 39 0.0 2.0 0.00 0.04 0.00 59 1017.9
20260503004344 71 0 0.0 2.0 0.00 0.04 0.00 59 1017.9
20260503004244 71 0 0.0 2.0 0.00 0.04 0.00 59 1017.9
20260503004144 71 303 0.0 2.0 0.00 0.05 0.00 58 1017.9
20260503004044 71 0 0.0 2.0 0.00 0.05 0.00 58 1017.9
20260503003935 71 0 1.0 2.0 0.00 0.06 0.00 57 1017.8
20260503003835 71 299 1.0 2.0 0.00 0.06 0.00 57 1017.8
20260503003731 71 252 1.0 2.0 0.00 0.06 0.00 57 1017.8
20260503003632 71 0 1.0 2.0 0.00 0.07 0.00 57 1017.8
20260503003557 71 0 1.0 2.0 0.00 0.07 0.00 57 1017.8
20260503003532 72 30 1.0 2.0 0.00 0.07 0.00 56 1017.8
20260503003432 72 27 1.0 2.0 0.00 0.07 0.00 56 1017.8
20260503003332 72 298 1.0 2.0 0.00 0.08 0.00 56 1017.8
20260503003230 72 27 1.0 2.0 0.00 0.09 0.00 56 1017.7
20260503003130 72 27 1.0 2.0 0.00 0.10 0.00 56 1017.7
20260503003058 72 348 1.0 3.0 0.00 0.11 0.00 56 1017.7
20260503003030 72 11 1.0 3.0 0.00 0.11 0.00 55 1017.7
20260503002921 72 308 1.0 3.0 0.00 0.13 0.00 55 1017.7
20260503002821 72 61 1.0 3.0 0.00 0.13 0.00 56 1017.7
20260503002718 72 0 1.0 3.0 0.00 0.13 0.00 55 1017.7
20260503002618 72 297 1.0 3.0 0.00 0.14 0.00 55 1017.7
20260503002558 72 334 1.0 3.0 0.00 0.16 0.00 55 1017.7
20260503002509 73 306 1.0 3.0 0.00 0.16 0.00 55 1017.6
20260503002409 73 342 1.0 3.0 0.00 0.16 0.00 55 1017.6
20260503002316 73 20 1.0 3.0 0.00 0.17 0.00 54 1017.6
20260503002308 73 297 1.0 3.0 0.00 0.17 0.00 55 1017.6
20260503002209 73 90 1.0 3.0 0.00 0.17 0.00 54 1017.6
20260503002204 73 43 1.0 3.0 0.00 0.17 0.00 54 1017.6
20260503002002 73 60 1.0 3.0 0.00 0.17 0.00 55 1017.6
20260503001856 73 275 1.0 4.0 0.00 0.17 0.00 54 1017.6
20260503001753 73 83 1.0 6.0 0.00 0.18 0.00 54 1017.6
20260503001653 73 308 1.0 6.0 0.00 0.18 0.00 54 1017.6
20260503001553 73 287 1.0 6.0 0.00 0.18 0.00 54 1017.6
20260503001445 73 299 1.0 6.0 0.00 0.18 0.00 54 1017.6
20260503001345 74 14 2.0 6.0 0.00 0.18 0.00 54 1017.6
20260503001310 74 12 2.0 6.0 0.00 0.18 0.00 52 1017.6
20260503001243 74 269 2.0 6.0 0.00 0.18 0.00 52 1017.6
20260503001155 74 291 2.0 6.0 0.00 0.18 0.00 52 1017.6
20260503001041 74 332 2.0 6.0 0.00 0.18 0.00 52 1017.6
20260503000942 74 359 1.0 6.0 0.00 0.18 0.00 52 1017.6
20260503000840 74 35 2.0 5.0 0.00 0.18 0.00 52 1017.6
20260503000739 74 328 2.0 5.0 0.00 0.18 0.00 52 1017.6
20260503000636 74 358 2.0 5.0 0.00 0.18 0.00 52 1017.6
20260503000550 74 28 2.0 5.0 0.00 0.18 0.00 52 1017.6
20260503000530 74 1 2.0 5.0 0.00 0.18 0.00 52 1017.6
20260503000430 74 240 2.0 5.0 0.00 0.18 0.00 52 1017.6
20260503000327 74 59 2.0 5.0 0.00 0.18 0.00 52 1017.6
20260503000227 74 287 2.0 5.0 0.00 0.18 0.00 52 1017.6
20260503000127 74 336 2.0 5.0 0.00 0.18 0.00 52 1017.6
20260503000049 74 4 2.0 5.0 0.00 0.18 0.00 52 1017.6
20260503000024 74 16 2.0 5.0 0.00 0.18 0.00 52 1017.6
20260502235924 74 351 2.0 6.0 0.00 0.18 0.00 51 1017.5
20260502235824 74 1 2.0 6.0 0.00 0.18 0.00 51 1017.5
20260502235724 74 236 2.0 6.0 0.00 0.18 0.00 51 1017.5
20260502235624 75 5 2.0 6.0 0.00 0.18 0.00 51 1017.5
20260502235546 75 298 2.0 6.0 0.00 0.18 0.00 51 1017.5
20260502235524 75 2 2.0 6.0 0.00 0.18 0.00 51 1017.5
20260502235424 75 328 2.0 6.0 0.00 0.18 0.00 51 1017.5
20260502235321 75 53 2.0 6.0 0.00 0.18 0.00 51 1017.5
20260502235221 75 335 2.0 6.0 0.00 0.18 0.00 51 1017.5
20260502235121 75 330 2.0 6.0 0.00 0.18 0.00 51 1017.5
20260502235047 75 215 2.0 6.0 0.00 0.18 0.00 51 1017.5
20260502235021 75 54 2.0 6.0 0.00 0.18 0.00 51 1017.5
20260502234918 75 294 2.0 6.0 0.00 0.18 0.00 51 1017.4
20260502234815 75 275 2.0 6.0 0.00 0.18 0.00 51 1017.4
20260502234715 75 66 2.0 6.0 0.00 0.18 0.00 51 1017.4
20260502234615 75 19 2.0 6.0 0.00 0.18 0.00 50 1017.4
20260502234547 75 258 2.0 6.0 0.00 0.18 0.00 50 1017.4
20260502234516 75 350 2.0 6.0 0.00 0.18 0.00 50 1017.4
20260502234412 75 306 2.0 6.0 0.00 0.18 0.00 51 1017.4
20260502234318 75 317 2.0 7.0 0.00 0.18 0.00 51 1017.4
20260502234309 75 356 2.0 6.0 0.00 0.18 0.00 51 1017.4
20260502234209 75 276 2.0 6.0 0.00 0.18 0.00 51 1017.4
20260502234150 75 47 2.0 6.0 0.00 0.18 0.00 51 1017.4
20260502234003 75 242 2.0 9.0 0.00 0.18 0.00 51 1017.4
20260502233903 75 358 3.0 10.0 0.00 0.18 0.00 51 1017.4
20260502233809 75 18 3.0 10.0 0.00 0.18 0.00 50 1017.4
20260502233804 75 17 3.0 10.0 0.00 0.18 0.00 51 1017.4
20260502233703 75 299 3.0 10.0 0.00 0.18 0.00 50 1017.4
20260502233647 75 330 3.0 10.0 0.00 0.18 0.00 50 1017.4
20260502233500 75 329 3.0 10.0 0.00 0.18 0.00 50 1017.4
20260502233357 75 310 3.0 10.0 0.00 0.18 0.00 49 1017.4
20260502233257 75 323 3.0 10.0 0.00 0.19 0.00 50 1017.4
20260502233157 76 326 3.0 10.0 0.00 0.19 0.00 49 1017.4
20260502233057 76 59 3.0 10.0 0.00 0.19 0.00 49 1017.4
20260502233041 76 49 2.0 10.0 0.00 0.19 0.00 49 1017.4
20260502232954 76 40 2.0 10.0 0.00 0.19 0.00 49 1017.4
20260502232854 76 31 2.0 7.0 0.00 0.19 0.00 50 1017.4
20260502232755 76 43 2.0 6.0 0.00 0.19 0.00 50 1017.3
20260502232654 76 354 1.0 6.0 0.00 0.20 0.00 50 1017.3
20260502232554 76 335 1.0 6.0 0.00 0.20 0.00 51 1017.3
20260502232541 76 26 1.0 6.0 0.00 0.20 0.00 50 1017.3
20260502232454 76 295 2.0 6.0 0.00 0.20 0.00 50 1017.3
20260502232354 76 348 2.0 6.0 0.00 0.20 0.00 50 1017.3
20260502232308 76 330 2.0 7.0 0.00 0.20 0.00 50 1017.2
20260502232252 76 28 2.0 6.0 0.00 0.20 0.00 50 1017.3
20260502232152 76 308 2.0 6.0 0.00 0.20 0.00 51 1017.3
20260502232146 76 16 2.0 6.0 0.00 0.20 0.00 50 1017.3
20260502231949 76 292 2.0 7.0 0.00 0.20 0.00 50 1017.2
20260502231849 76 320 2.0 7.0 0.00 0.20 0.00 50 1017.2
20260502231745 76 189 2.0 7.0 0.00 0.20 0.00 50 1017.2
20260502231645 76 1 2.0 7.0 0.00 0.20 0.00 50 1017.2
20260502231546 76 15 2.0 7.0 0.00 0.20 0.00 50 1017.2
20260502231538 76 284 2.0 7.0 0.00 0.20 0.00 49 1017.1
20260502231446 76 341 2.0 7.0 0.00 0.20 0.00 49 1017.1
20260502231345 76 341 2.0 7.0 0.00 0.20 0.00 49 1017.1
20260502231244 76 311 2.0 8.0 0.00 0.20 0.00 49 1017.1
20260502231144 76 329 2.0 8.0 0.00 0.20 0.00 51 1017.1
20260502231044 76 26 2.0 8.0 0.00 0.20 0.00 50 1017.1
20260502231039 76 29 2.0 8.0 0.00 0.20 0.00 50 1017.1
20260502230943 76 267 2.0 8.0 0.00 0.20 0.00 50 1017.1
20260502230840 76 225 3.0 8.0 0.00 0.20 0.00 49 1017.1
20260502230739 76 263 2.0 8.0 0.00 0.20 0.00 49 1017.1
20260502230634 76 315 2.0 8.0 0.00 0.20 0.00 49 1017.1
20260502230538 76 351 2.0 8.0 0.00 0.20 0.00 49 1017.1
20260502230531 76 352 2.0 8.0 0.00 0.20 0.00 49 1017.1
20260502230416 76 52 2.0 8.0 0.00 0.20 0.00 50 1017.1
20260502230316 76 347 2.0 8.0 0.00 0.20 0.00 50 1017.1
20260502230216 76 17 2.0 8.0 0.00 0.20 0.00 50 1017.1
20260502230116 76 50 2.0 8.0 0.00 0.20 0.00 50 1017.1
20260502230038 76 20 2.0 8.0 0.00 0.20 0.00 51 1017.2
20260502230015 76 34 2.0 8.0 0.00 0.20 0.00 51 1017.2
20260502225915 76 88 2.0 8.0 0.00 0.20 0.00 51 1017.2
20260502225815 76 294 3.0 8.0 0.00 0.20 0.00 51 1017.2
20260502225713 76 328 3.0 8.0 0.00 0.20 0.00 51 1017.2
20260502225612 76 315 3.0 8.0 0.00 0.20 0.00 50 1017.2
20260502225536 76 286 3.0 8.0 0.00 0.20 0.00 49 1017.2
20260502225512 76 261 4.0 8.0 0.00 0.20 0.00 49 1017.2
20260502225412 76 333 4.0 8.0 0.00 0.21 0.00 49 1017.2
20260502225313 76 36 4.0 8.0 0.00 0.21 0.00 49 1017.2
20260502225213 76 18 4.0 8.0 0.00 0.22 0.00 50 1017.2
20260502225113 76 56 3.0 8.0 0.00 0.22 0.00 49 1017.2
20260502225035 76 30 3.0 8.0 0.00 0.22 0.00 49 1017.2
20260502225010 76 54 3.0 8.0 0.00 0.22 0.00 49 1017.2
20260502224910 76 37 3.0 8.0 0.00 0.22 0.00 49 1017.1
20260502224810 76 48 3.0 8.0 0.00 0.22 0.00 49 1017.1
20260502224711 76 301 3.0 8.0 0.00 0.22 0.00 51 1017.0
20260502224608 76 318 2.0 7.0 0.00 0.22 0.00 50 1017.1
20260502224533 76 282 2.0 7.0 0.00 0.22 0.00 50 1017.1
20260502224507 76 93 2.0 7.0 0.00 0.22 0.00 50 1017.1
20260502224404 76 307 2.0 7.0 0.00 0.22 0.00 50 1016.9
20260502224301 76 341 2.0 7.0 0.00 0.22 0.00 50 1017.1
20260502224201 76 318 2.0 7.0 0.00 0.22 0.00 50 1017.1
20260502224101 76 232 2.0 7.0 0.00 0.22 0.00 50 1017.1
20260502224030 76 308 2.0 7.0 0.00 0.22 0.00 50 1017.1
20260502224001 76 323 2.0 7.0 0.00 0.22 0.00 50 1017.1
20260502223901 76 295 2.0 7.0 0.00 0.22 0.00 50 1017.1
20260502223758 76 321 2.0 5.0 0.00 0.22 0.00 50 1017.1
20260502223703 76 350 2.0 7.0 0.00 0.22 0.00 50 1017.1
20260502223557 76 309 2.0 7.0 0.00 0.22 0.00 50 1017.1
20260502223529 76 303 2.0 9.0 0.00 0.22 0.00 50 1017.1
20260502223452 76 305 2.0 9.0 0.00 0.22 0.00 50 1017.1
20260502223353 76 15 2.0 9.0 0.00 0.22 0.00 50 1017.2
20260502223252 76 353 2.0 9.0 0.00 0.22 0.00 50 1017.2
20260502223152 76 324 2.0 9.0 0.00 0.22 0.00 50 1017.2
20260502223049 76 269 2.0 9.0 0.00 0.22 0.00 50 1017.1
20260502223024 76 251 2.0 9.0 0.00 0.22 0.00 49 1017.2
20260502222949 76 50 2.0 9.0 0.00 0.22 0.00 49 1017.2
20260502222849 76 341 2.0 9.0 0.00 0.22 0.00 50 1017.2
20260502222749 76 32 2.0 9.0 0.00 0.22 0.00 50 1017.2
20260502222646 76 92 2.0 9.0 0.00 0.22 0.00 49 1017.2
20260502222546 76 352 2.0 9.0 0.00 0.22 0.00 48 1017.1
20260502222524 76 324 2.0 9.0 0.00 0.22 0.00 49 1017.2
20260502222446 76 51 3.0 9.0 0.00 0.22 0.00 49 1017.2
20260502222346 76 64 3.0 9.0 0.00 0.22 0.00 49 1017.2
20260502222247 76 43 3.0 9.0 0.00 0.22 0.00 49 1017.2
20260502222147 76 50 4.0 9.0 0.00 0.22 0.00 49 1017.2
20260502222046 76 342 4.0 9.0 0.00 0.22 0.00 49 1017.1
20260502222021 76 305 4.0 9.0 0.00 0.22 0.00 50 1017.2
20260502221946 76 347 4.0 9.0 0.00 0.22 0.00 50 1017.2
20260502221846 76 350 4.0 11.0 0.00 0.23 0.00 49 1017.2
20260502221746 76 18 4.0 11.0 0.00 0.23 0.00 48 1017.2
20260502221647 76 337 4.0 11.0 0.00 0.23 0.00 48 1017.2
20260502221547 76 12 4.0 11.0 0.00 0.23 0.00 49 1017.2
20260502221515 76 31 4.0 11.0 0.00 0.23 0.00 48 1017.2
20260502221447 76 20 4.0 11.0 0.00 0.23 0.00 48 1017.2
20260502221347 76 32 4.0 11.0 0.00 0.23 0.00 49 1017.2
20260502221247 76 40 4.0 11.0 0.00 0.23 0.00 49 1017.2
20260502221145 76 260 3.0 11.0 0.00 0.23 0.00 48 1017.2
20260502221045 76 14 3.0 11.0 0.00 0.24 0.00 49 1017.1
20260502221015 76 350 3.0 11.0 0.00 0.24 0.00 49 1017.1
20260502220945 76 353 3.0 9.0 0.00 0.24 0.00 48 1017.2
20260502220845 76 347 3.0 8.0 0.00 0.24 0.00 49 1017.1
20260502220744 76 53 3.0 10.0 0.00 0.24 0.00 48 1017.1
20260502220641 76 34 3.0 10.0 0.00 0.24 0.00 50 1017.1
20260502220534 76 38 3.0 10.0 0.00 0.24 0.00 49 1017.1
20260502220515 76 43 3.0 11.0 0.00 0.24 0.00 49 1017.1
20260502220434 76 35 3.0 11.0 0.00 0.24 0.00 49 1017.1
20260502220334 76 264 4.0 11.0 0.00 0.24 0.00 49 1017.1
20260502220231 76 352 4.0 11.0 0.00 0.24 0.00 49 1017.1
20260502220129 76 316 4.0 11.0 0.00 0.24 0.00 49 1017.1
20260502220026 76 357 4.0 11.0 0.00 0.24 0.00 49 1017.1
20260502220013 76 41 4.0 11.0 0.00 0.24 0.00 49 1017.1
20260502215923 76 305 4.0 11.0 0.00 0.24 0.00 48 1017.2
20260502215816 76 56 4.0 11.0 0.00 0.24 0.00 48 1017.1
20260502215716 76 323 4.0 11.0 0.00 0.24 0.00 48 1017.1
20260502215616 76 348 3.0 11.0 0.00 0.24 0.00 48 1017.1
20260502215514 76 41 3.0 9.0 0.00 0.24 0.00 48 1017.1
20260502215507 76 2 3.0 9.0 0.00 0.24 0.00 48 1017.1
20260502215411 76 354 3.0 9.0 0.00 0.25 0.00 48 1017.1
20260502215308 76 358 3.0 9.0 0.00 0.26 0.00 49 1017.1
20260502215204 76 318 2.0 7.0 0.00 0.26 0.00 49 1017.1
20260502215059 76 338 2.0 7.0 0.00 0.26 0.00 49 1017.1
20260502215001 76 283 2.0 7.0 0.00 0.26 0.00 49 1017.1
20260502214956 76 275 3.0 7.0 0.00 0.26 0.00 49 1017.1
20260502214853 76 165 3.0 8.0 0.00 0.26 0.00 49 1017.1
20260502214752 76 326 3.0 8.0 0.00 0.26 0.00 49 1017.2
20260502214648 76 309 4.0 9.0 0.00 0.26 0.00 49 1017.2
20260502214558 76 347 4.0 9.0 0.00 0.26 0.00 48 1017.2
20260502214454 76 315 4.0 11.0 0.00 0.26 0.00 48 1017.2
20260502214441 76 349 4.0 11.0 0.00 0.26 0.00 48 1017.2
20260502214342 76 11 5.0 11.0 0.00 0.26 0.00 48 1017.2
20260502214241 76 17 5.0 11.0 0.00 0.26 0.00 48 1017.2
20260502214141 76 24 5.0 11.0 0.00 0.26 0.00 49 1017.2
20260502214035 76 306 5.0 11.0 0.00 0.26 0.00 49 1017.2
20260502213955 76 55 5.0 11.0 0.00 0.26 0.00 49 1017.2
20260502213935 76 51 4.0 11.0 0.00 0.26 0.00 48 1017.2
20260502213835 76 17 4.0 11.0 0.00 0.26 0.00 48 1017.2
20260502213735 76 324 4.0 11.0 0.00 0.26 0.00 48 1017.2
20260502213635 76 32 4.0 11.0 0.00 0.26 0.00 48 1017.1
20260502213535 76 26 4.0 10.0 0.00 0.26 0.00 49 1017.1
20260502213449 76 7 3.0 9.0 0.00 0.26 0.00 49 1017.1
20260502213435 76 224 4.0 9.0 0.00 0.26 0.00 49 1017.1
20260502213332 76 32 3.0 9.0 0.00 0.26 0.00 49 1017.2
20260502213232 76 295 4.0 9.0 0.00 0.26 0.00 49 1017.2
20260502213132 76 337 4.0 9.0 0.00 0.26 0.00 48 1017.2
20260502213032 76 67 4.0 9.0 0.00 0.26 0.00 49 1017.2
20260502212948 76 25 4.0 9.0 0.00 0.26 0.00 49 1017.2
20260502212929 76 352 4.0 9.0 0.00 0.26 0.00 49 1017.3
20260502212829 76 28 4.0 9.0 0.00 0.26 0.00 49 1017.3
20260502212726 76 49 4.0 9.0 0.00 0.26 0.00 47 1017.1
20260502212623 76 341 4.0 9.0 0.00 0.27 0.00 47 1017.1
20260502212521 76 332 4.0 11.0 0.00 0.27 0.00 47 1017.1
20260502212449 76 25 4.0 11.0 0.00 0.27 0.00 47 1017.1
20260502212420 76 34 3.0 11.0 0.00 0.27 0.00 48 1017.2
20260502212317 76 39 3.0 11.0 0.00 0.28 0.00 48 1017.2
20260502212217 76 309 3.0 11.0 0.00 0.29 0.00 48 1017.2
20260502212117 76 308 3.0 11.0 0.00 0.30 0.00 48 1017.2
20260502212017 76 354 3.0 11.0 0.00 0.31 0.00 50 1017.2
20260502211949 76 317 2.0 11.0 0.00 0.31 0.00 50 1017.2
20260502211917 76 340 2.0 11.0 0.00 0.31 0.00 50 1017.2
20260502211817 76 278 3.0 11.0 0.00 0.31 0.00 51 1017.3
20260502211716 76 25 2.0 6.0 0.00 0.35 0.00 52 1017.2
20260502211711 76 305 3.0 11.0 0.00 0.32 0.00 51 1017.3
20260502211611 76 275 3.0 11.0 0.00 0.33 0.00 51 1017.3
20260502211555 76 7 2.0 6.0 0.00 0.34 0.00 52 1017.2
20260502211412 76 342 2.0 8.0 0.00 0.35 0.00 51 1017.2
20260502211313 76 326 2.0 8.0 0.00 0.35 0.00 50 1017.2
20260502211212 76 157 2.0 8.0 0.00 0.35 0.00 51 1017.3
20260502211112 76 331 2.0 8.0 0.00 0.36 0.00 51 1017.3
20260502211009 76 350 3.0 8.0 0.00 0.37 0.00 51 1017.3
20260502210949 76 241 3.0 8.0 0.00 0.38 0.00 51 1017.3
20260502210908 75 10 3.0 8.0 0.00 0.38 0.00 52 1017.3
20260502210808 75 323 3.0 8.0 0.00 0.40 0.00 52 1017.3
20260502210708 75 326 3.0 8.0 0.00 0.42 0.00 52 1017.3
20260502210608 75 176 3.0 8.0 0.00 0.42 0.00 53 1017.4
20260502210506 75 330 3.0 8.0 0.00 0.42 0.00 51 1017.3
20260502210450 75 315 3.0 8.0 0.00 0.43 0.00 51 1017.3
20260502210356 75 300 3.0 8.0 0.00 0.43 0.00 49 1017.3
20260502210256 75 305 3.0 8.0 0.00 0.43 0.00 49 1017.3
20260502210153 75 311 3.0 8.0 0.00 0.43 0.00 49 1017.3
20260502210048 75 298 3.0 8.0 0.00 0.43 0.00 51 1017.4
20260502205949 75 317 2.0 8.0 0.00 0.43 0.00 51 1017.4
20260502205942 75 304 2.0 8.0 0.00 0.43 0.00 51 1017.4
20260502205838 75 310 2.0 6.0 0.00 0.43 0.00 50 1017.3
20260502205738 75 54 2.0 6.0 0.00 0.43 0.00 50 1017.4
20260502205708 75 342 3.0 9.0 0.00 0.44 0.00 50 1017.4
20260502205635 75 268 2.0 9.0 0.00 0.44 0.00 49 1017.4
20260502205555 75 312 3.0 9.0 0.00 0.44 0.00 50 1017.4
20260502205436 75 320 3.0 9.0 0.00 0.44 0.00 50 1017.4
20260502205427 75 347 2.0 9.0 0.00 0.46 0.00 52 1017.4
20260502205335 75 12 2.0 9.0 0.00 0.45 0.00 51 1017.4
20260502205309 75 342 2.0 9.0 0.00 0.46 0.00 51 1017.4
20260502205129 75 28 2.0 9.0 0.00 0.46 0.00 51 1017.3
20260502205052 75 340 2.0 9.0 0.00 0.46 0.00 52 1017.4
20260502204914 75 99 3.0 9.0 0.00 0.46 0.00 51 1017.4
20260502204814 75 256 3.0 9.0 0.00 0.46 0.00 51 1017.4
20260502204711 75 294 3.0 9.0 0.00 0.46 0.00 51 1017.4
20260502204608 75 320 3.0 8.0 0.00 0.46 0.00 52 1017.5
20260502204508 75 345 3.0 8.0 0.00 0.46 0.00 52 1017.4
20260502204447 75 291 3.0 8.0 0.00 0.46 0.00 52 1017.4
20260502204408 75 331 3.0 8.0 0.00 0.46 0.00 52 1017.4
20260502204303 75 230 3.0 8.0 0.00 0.47 0.00 52 1017.4
20260502204159 75 328 3.0 8.0 0.00 0.48 0.00 52 1017.4
20260502204056 75 27 3.0 9.0 0.00 0.48 0.00 51 1017.5
20260502203954 75 347 3.0 9.0 0.00 0.49 0.00 51 1017.5
20260502203946 75 338 3.0 9.0 0.00 0.49 0.00 52 1017.5
20260502203851 75 283 3.0 9.0 0.00 0.49 0.00 52 1017.5
20260502203751 75 60 3.0 10.0 0.00 0.49 0.00 50 1017.5
20260502203648 75 358 4.0 10.0 0.00 0.49 0.00 50 1017.5
20260502203548 75 356 4.0 10.0 0.00 0.49 0.00 50 1017.5
20260502203444 75 300 5.0 11.0 0.00 0.49 0.00 50 1017.5
20260502203438 75 304 5.0 11.0 0.00 0.49 0.00 50 1017.5
20260502203343 75 21 5.0 11.0 0.00 0.49 0.00 50 1017.5
20260502203240 75 302 5.0 11.0 0.00 0.49 0.00 50 1017.5
20260502203131 75 358 5.0 11.0 0.00 0.49 0.00 50 1017.6
20260502203027 75 31 5.0 11.0 0.00 0.49 0.00 50 1017.6
20260502202932 75 72 5.0 11.0 0.00 0.49 0.00 50 1017.6
20260502202924 75 39 5.0 11.0 0.00 0.49 0.00 50 1017.6
20260502202815 75 18 5.0 11.0 0.00 0.49 0.00 50 1017.6
20260502202715 75 27 5.0 11.0 0.00 0.49 0.00 51 1017.5
20260502202615 75 26 4.0 11.0 0.00 0.49 0.00 50 1017.5
20260502202512 75 23 4.0 11.0 0.00 0.49 0.00 50 1017.5
20260502202427 75 15 4.0 13.0 0.00 0.49 0.00 51 1017.6
20260502202412 75 332 4.0 13.0 0.00 0.49 0.00 51 1017.6
20260502202309 75 359 4.0 13.0 0.00 0.49 0.00 51 1017.7
20260502202205 75 352 4.0 13.0 0.00 0.50 0.00 50 1017.7
20260502202106 75 352 3.0 13.0 0.00 0.50 0.00 51 1017.7
20260502202003 75 57 3.0 13.0 0.00 0.50 0.00 51 1017.7
20260502201926 75 43 3.0 13.0 0.00 0.50 0.00 51 1017.8
20260502201903 75 341 3.0 13.0 0.00 0.50 0.00 51 1017.8
20260502201803 75 264 3.0 13.0 0.00 0.51 0.00 51 1017.8
20260502201703 75 284 3.0 13.0 0.00 0.51 0.00 51 1017.8
20260502201603 75 336 3.0 13.0 0.00 0.51 0.00 53 1017.8
20260502201503 75 7 3.0 13.0 0.00 0.51 0.00 53 1017.8
20260502201426 75 4 2.0 8.0 0.00 0.51 0.00 53 1017.8
20260502201403 75 77 2.0 8.0 0.00 0.51 0.00 53 1017.8
20260502201303 75 318 2.0 8.0 0.00 0.51 0.00 54 1017.8
20260502201203 75 351 3.0 8.0 0.00 0.51 0.00 53 1017.7
20260502201057 75 356 3.0 8.0 0.00 0.52 0.00 53 1017.8
20260502200957 75 291 3.0 8.0 0.00 0.52 0.00 52 1017.8
20260502200926 75 335 3.0 8.0 0.00 0.52 0.00 52 1017.8
20260502200858 75 126 3.0 8.0 0.00 0.52 0.00 52 1017.8
20260502200757 75 100 3.0 8.0 0.00 0.53 0.00 53 1017.7
20260502200652 75 278 2.0 8.0 0.00 0.54 0.00 53 1017.8
20260502200639 75 0 3.0 8.0 0.00 0.55 0.00 53 1017.8
20260502200552 75 159 2.0 8.0 0.00 0.55 0.00 53 1017.8
20260502200526 75 295 3.0 8.0 0.00 0.55 0.00 52 1017.8
20260502200351 75 342 3.0 8.0 0.00 0.55 0.00 53 1017.8
20260502200252 75 295 3.0 8.0 0.00 0.55 0.00 53 1017.8
20260502200152 75 348 3.0 8.0 0.00 0.55 0.00 53 1017.8
20260502200052 75 162 3.0 8.0 0.00 0.55 0.00 53 1017.8
20260502195952 74 305 3.0 8.0 0.00 0.55 0.00 54 1017.9
20260502195916 74 322 3.0 8.0 0.00 0.55 0.00 54 1017.9
20260502195852 74 269 3.0 8.0 0.00 0.55 0.00 54 1017.9
20260502195748 74 12 3.0 8.0 0.00 0.55 0.00 54 1017.8
20260502195649 74 349 3.0 8.0 0.00 0.55 0.00 52 1017.8
20260502195637 74 319 3.0 12.0 0.00 0.55 0.00 52 1017.9
20260502195549 74 37 3.0 12.0 0.00 0.55 0.00 52 1017.8
20260502195523 74 216 3.0 12.0 0.00 0.55 0.00 54 1018.0
20260502195349 74 353 3.0 12.0 0.00 0.55 0.00 52 1017.9
20260502195249 74 14 3.0 12.0 0.00 0.55 0.00 52 1017.9
20260502195149 74 338 3.0 12.0 0.00 0.55 0.00 52 1017.9
20260502195049 74 327 3.0 12.0 0.00 0.55 0.00 52 1017.9
20260502194947 74 283 4.0 12.0 0.00 0.55 0.00 54 1018.0
20260502194917 74 332 4.0 12.0 0.00 0.55 0.00 54 1018.0
20260502194847 74 3 4.0 12.0 0.00 0.55 0.00 53 1018.0
20260502194742 74 330 3.0 12.0 0.00 0.55 0.00 53 1018.0
20260502194639 74 1 3.0 12.0 0.00 0.55 0.00 56 1017.9
20260502194531 74 264 3.0 11.0 0.00 0.55 0.00 54 1018.0
20260502194430 74 325 3.0 11.0 0.00 0.56 0.00 54 1018.0
20260502194417 74 334 3.0 11.0 0.00 0.56 0.00 54 1018.0
20260502194328 74 327 3.0 11.0 0.00 0.56 0.00 54 1017.9
20260502194228 74 355 3.0 11.0 0.00 0.56 0.00 54 1017.9
20260502194128 74 313 3.0 11.0 0.00 0.56 0.00 54 1017.9
20260502194024 74 16 3.0 11.0 0.00 0.56 0.00 55 1018.0
20260502193925 74 302 3.0 9.0 0.00 0.56 0.00 54 1018.1
20260502193911 74 1 3.0 9.0 0.00 0.56 0.00 54 1018.1
20260502193825 74 294 3.0 9.0 0.00 0.56 0.00 55 1018.1
20260502193725 74 294 3.0 9.0 0.00 0.56 0.00 54 1018.2
20260502193622 74 290 3.0 9.0 0.00 0.57 0.00 56 1018.2
20260502193522 74 293 3.0 9.0 0.00 0.58 0.00 56 1018.2
20260502193422 74 252 3.0 9.0 0.00 0.58 0.00 56 1018.2
20260502193406 74 318 3.0 9.0 0.00 0.58 0.00 56 1018.2
20260502193322 74 330 3.0 9.0 0.00 0.59 0.00 55 1018.2
20260502193219 74 304 3.0 9.0 0.00 0.61 0.00 54 1018.2
20260502193116 74 39 3.0 9.0 0.00 0.62 0.00 54 1018.2
20260502193012 74 331 3.0 9.0 0.00 0.62 0.00 54 1018.2
20260502192910 74 0 3.0 9.0 0.00 0.64 0.00 55 1018.2
20260502192859 74 343 3.0 9.0 0.00 0.64 0.00 55 1018.2
20260502192810 74 25 3.0 9.0 0.00 0.64 0.00 54 1018.3
20260502192710 74 353 2.0 9.0 0.00 0.64 0.00 54 1018.4
20260502192610 74 277 3.0 9.0 0.00 0.64 0.00 54 1018.3
20260502192504 74 298 2.0 8.0 0.00 0.64 0.00 54 1018.3
20260502192405 74 346 2.0 8.0 0.00 0.64 0.00 54 1018.4
20260502192359 74 338 2.0 8.0 0.00 0.64 0.00 54 1018.4
20260502192305 74 314 2.0 8.0 0.00 0.64 0.00 56 1018.4
20260502192204 74 277 2.0 8.0 0.00 0.64 0.00 56 1018.4
20260502192104 74 247 2.0 8.0 0.00 0.64 0.00 56 1018.4
20260502191958 74 311 2.0 8.0 0.00 0.64 0.00 54 1018.4
20260502191859 74 285 2.0 8.0 0.00 0.64 0.00 55 1018.4
20260502191855 74 240 2.0 8.0 0.00 0.64 0.00 55 1018.4
20260502191752 74 338 3.0 10.0 0.00 0.64 0.00 55 1018.4
20260502191652 74 329 3.0 10.0 0.00 0.65 0.00 54 1018.4
20260502191552 74 317 3.0 10.0 0.00 0.65 0.00 56 1018.4
20260502191452 74 3 3.0 10.0 0.00 0.66 0.00 56 1018.4
20260502191356 73 6 3.0 10.0 0.00 0.66 0.00 58 1018.5
20260502191352 73 329 3.0 10.0 0.00 0.66 0.00 58 1018.5
20260502191249 73 36 3.0 10.0 0.00 0.67 0.00 58 1018.5
20260502191143 73 222 4.0 10.0 0.00 0.67 0.00 58 1018.5
20260502191041 73 304 4.0 10.0 0.00 0.67 0.00 58 1018.5
20260502190937 73 304 4.0 11.0 0.00 0.67 0.00 55 1018.6
20260502190857 73 23 4.0 11.0 0.00 0.67 0.00 55 1018.6
20260502190834 73 36 4.0 11.0 0.00 0.67 0.00 55 1018.6
20260502190731 73 10 4.0 11.0 0.00 0.67 0.00 55 1018.5
20260502190631 73 0 4.0 11.0 0.00 0.67 0.00 55 1018.5
20260502190531 73 146 4.0 11.0 0.00 0.67 0.00 55 1018.5
20260502190431 73 36 4.0 11.0 0.00 0.67 0.00 55 1018.6
20260502190357 73 57 4.0 11.0 0.00 0.67 0.00 55 1018.6
20260502190331 73 37 4.0 11.0 0.00 0.67 0.00 55 1018.6
20260502190228 73 11 4.0 11.0 0.00 0.67 0.00 55 1018.6
20260502190128 73 34 4.0 11.0 0.00 0.67 0.00 55 1018.6
20260502190028 73 57 3.0 11.0 0.00 0.67 0.00 55 1018.6
20260502185926 73 46 3.0 13.0 0.00 0.67 0.00 55 1018.5
20260502185855 73 32 4.0 13.0 0.00 0.67 0.00 55 1018.5
20260502185826 73 54 4.0 14.0 0.00 0.67 0.00 55 1018.5
20260502185726 73 342 4.0 14.0 0.00 0.67 0.00 55 1018.6
20260502185626 73 320 4.0 14.0 0.00 0.67 0.00 56 1018.5
20260502185526 73 288 4.0 14.0 0.00 0.67 0.00 56 1018.5
20260502185425 73 329 4.0 14.0 0.00 0.67 0.00 55 1018.6
20260502185355 73 39 4.0 14.0 0.00 0.67 0.00 55 1018.6
20260502185326 73 332 4.0 14.0 0.00 0.67 0.00 55 1018.6
20260502185226 73 313 4.0 14.0 0.00 0.67 0.00 56 1018.6
20260502185125 73 309 4.0 14.0 0.00 0.67 0.00 56 1018.6
20260502185112 74 54 4.0 14.0 0.00 0.67 0.00 54 1018.6
20260502185025 73 276 4.0 14.0 0.00 0.67 0.00 54 1018.7
20260502184959 74 34 4.0 14.0 0.00 0.67 0.00 54 1018.6
20260502184819 74 26 4.0 9.0 0.00 0.67 0.00 54 1018.6
20260502184720 74 65 3.0 9.0 0.00 0.67 0.00 55 1018.7
20260502184617 74 15 3.0 9.0 0.00 0.67 0.00 55 1018.6
20260502184517 74 1 3.0 9.0 0.00 0.67 0.00 55 1018.6
20260502184417 74 320 3.0 9.0 0.00 0.67 0.00 54 1018.7
20260502184354 74 335 3.0 9.0 0.00 0.67 0.00 54 1018.7
20260502184317 74 328 3.0 8.0 0.00 0.67 0.00 53 1018.7
20260502184216 74 325 3.0 8.0 0.00 0.67 0.00 56 1018.7
20260502184116 74 342 3.0 8.0 0.00 0.67 0.00 56 1018.7
20260502184017 74 4 3.0 8.0 0.00 0.67 0.00 56 1018.7
20260502183917 74 25 3.0 8.0 0.00 0.67 0.00 56 1018.7
20260502183854 74 325 3.0 8.0 0.00 0.67 0.00 56 1018.7
20260502183817 74 199 3.0 8.0 0.00 0.67 0.00 56 1018.7
20260502183716 73 27 3.0 8.0 0.00 0.67 0.00 57 1018.7
20260502183616 73 38 3.0 8.0 0.00 0.67 0.00 57 1018.7
20260502183516 73 292 3.0 8.0 0.00 0.67 0.00 53 1018.7
20260502183411 73 326 3.0 8.0 0.00 0.67 0.00 58 1018.7
20260502183354 73 352 3.0 8.0 0.00 0.67 0.00 58 1018.7
20260502183305 73 21 2.0 8.0 0.00 0.67 0.00 58 1018.7
20260502183204 73 56 2.0 8.0 0.00 0.67 0.00 58 1018.7
20260502183053 73 20 2.0 8.0 0.00 0.67 0.00 56 1018.8
20260502182948 73 273 2.0 8.0 0.00 0.67 0.00 56 1018.8
20260502182855 73 300 2.0 8.0 0.00 0.67 0.00 56 1018.8
20260502182841 73 38 2.0 8.0 0.00 0.67 0.00 56 1018.8
20260502182741 73 317 2.0 8.0 0.00 0.67 0.00 55 1018.9
20260502182640 73 357 3.0 8.0 0.00 0.67 0.00 56 1018.9
20260502182540 73 19 3.0 8.0 0.00 0.67 0.00 56 1018.9
20260502182441 73 231 3.0 8.0 0.00 0.67 0.00 56 1018.9
20260502182351 73 328 3.0 7.0 0.00 0.67 0.00 56 1018.9
20260502182338 73 268 3.0 8.0 0.00 0.67 0.00 56 1018.9
20260502182238 73 230 3.0 8.0 0.00 0.67 0.00 56 1018.9
20260502182135 73 312 3.0 8.0 0.00 0.67 0.00 56 1018.9
20260502182113 73 340 3.0 8.0 0.00 0.67 0.00 55 1019.0
20260502182032 73 358 3.0 8.0 0.00 0.67 0.00 56 1018.9
20260502181954 73 29 3.0 8.0 0.00 0.67 0.00 55 1019.0
20260502181832 73 19 3.0 8.0 0.00 0.67 0.00 55 1019.0
20260502181730 73 327 3.0 10.0 0.00 0.67 0.00 54 1019.1
20260502181629 73 8 3.0 10.0 0.00 0.67 0.00 57 1019.1
20260502181523 73 342 3.0 10.0 0.00 0.67 0.00 57 1019.1
20260502181423 73 296 3.0 10.0 0.00 0.67 0.00 57 1019.1
20260502181348 73 45 3.0 10.0 0.00 0.67 0.00 57 1019.1
20260502181323 73 55 3.0 10.0 0.00 0.67 0.00 56 1019.1
20260502181220 73 342 3.0 10.0 0.00 0.67 0.00 55 1019.2
20260502181117 73 23 3.0 10.0 0.00 0.67 0.00 55 1019.2
20260502181017 73 34 3.0 10.0 0.00 0.67 0.00 57 1019.1
20260502180914 73 293 3.0 10.0 0.00 0.67 0.00 57 1019.1
20260502180848 73 280 3.0 10.0 0.00 0.67 0.00 57 1019.1
20260502180830 73 24 3.0 9.0 0.00 0.67 0.00 55 1019.3
20260502180811 73 241 3.0 10.0 0.00 0.67 0.00 55 1019.2
20260502180718 73 282 3.0 10.0 0.00 0.67 0.00 56 1019.1
20260502180607 73 48 3.0 8.0 0.00 0.67 0.00 54 1019.2
20260502180508 73 57 3.0 9.0 0.00 0.67 0.00 54 1019.2
20260502180455 73 328 3.0 9.0 0.00 0.67 0.00 55 1019.3
20260502180304 72 48 3.0 9.0 0.00 0.67 0.00 55 1019.3
20260502180205 72 39 4.0 9.0 0.00 0.67 0.00 54 1019.3
20260502180106 72 4 3.0 9.0 0.00 0.67 0.00 54 1019.3
20260502170442 71 40 3.0 10.0 0.00 0.67 0.00 60 1019.6
20260502170342 70 347 3.0 10.0 0.00 0.67 0.00 61 1019.6
20260502170317 70 35 3.0 10.0 0.00 0.67 0.00 61 1019.6
20260502170242 70 12 3.0 10.0 0.00 0.67 0.00 61 1019.6
20260502170155 70 72 3.0 10.0 0.00 0.67 0.00 61 1019.6
20260502164318 70 3 4.0 11.0 0.00 0.88 0.00 61 1019.6
20260502164218 69 21 4.0 11.0 0.00 0.89 0.00 62 1019.6
20260502164118 69 11 4.0 11.0 0.00 0.89 0.00 63 1019.6
20260502164018 69 308 4.0 11.0 0.00 0.89 0.00 63 1019.6
20260502163918 69 101 4.0 11.0 0.00 0.91 0.00 61 1019.5
20260502163819 69 67 4.0 11.0 0.00 0.91 0.00 62 1019.4
20260502163719 69 348 4.0 9.0 0.00 0.92 0.00 64 1019.5
20260502163618 69 258 4.0 9.0 0.00 0.93 0.00 62 1019.5
20260502163518 69 30 4.0 9.0 0.00 0.93 0.00 63 1019.5
20260502163415 69 296 4.0 9.0 0.00 0.93 0.00 63 1019.5
20260502163317 69 286 4.0 9.0 0.00 0.93 0.00 61 1019.5
20260502163307 69 45 4.0 9.0 0.00 0.93 0.00 61 1019.5
20260502163207 69 41 3.0 9.0 0.00 0.93 0.00 62 1019.5
20260502163107 69 333 3.0 9.0 0.00 0.93 0.00 63 1019.6
20260502163006 69 23 3.0 9.0 0.00 0.93 0.00 63 1019.6
20260502162906 69 75 3.0 9.0 0.00 0.93 0.00 64 1019.6
20260502162817 69 342 4.0 9.0 0.00 0.93 0.00 63 1019.6
20260502162806 69 42 3.0 9.0 0.00 0.93 0.00 63 1019.6
20260502162707 69 357 4.0 9.0 0.00 0.93 0.00 65 1019.5
20260502162604 69 14 4.0 9.0 0.00 0.93 0.00 64 1019.5
20260502162504 69 8 4.0 9.0 0.00 0.93 0.00 66 1019.5
20260502162401 69 300 4.0 9.0 0.00 0.93 0.00 66 1019.5
20260502162315 69 28 4.0 9.0 0.00 0.93 0.00 67 1019.5
20260502162300 69 16 4.0 9.0 0.00 0.93 0.00 67 1019.5
20260502162158 68 42 4.0 9.0 0.00 0.93 0.00 66 1019.5
20260502162058 68 341 4.0 9.0 0.00 0.93 0.00 66 1019.5
20260502161952 69 14 4.0 9.0 0.00 0.93 0.00 67 1019.4
20260502161850 69 27 3.0 9.0 0.00 0.93 0.00 66 1019.5
20260502161814 69 302 3.0 9.0 0.00 0.93 0.00 66 1019.5
20260502161750 69 4 3.0 9.0 0.00 0.93 0.00 65 1019.4
20260502161650 69 46 3.0 9.0 0.00 0.93 0.00 66 1019.5
20260502161550 69 7 3.0 10.0 0.00 0.93 0.00 65 1019.4
20260502161451 69 6 3.0 10.0 0.00 0.93 0.00 65 1019.4
20260502161350 69 351 3.0 10.0 0.00 0.93 0.00 64 1019.4
20260502161314 69 217 3.0 10.0 0.00 0.93 0.00 64 1019.4
20260502161250 69 359 3.0 10.0 0.00 0.93 0.00 66 1019.3
20260502161150 69 30 3.0 13.0 0.00 0.93 0.00 65 1019.4
20260502161050 69 318 4.0 13.0 0.00 0.93 0.00 66 1019.4
20260502160950 69 3 3.0 13.0 0.00 0.93 0.00 68 1019.4
20260502160850 69 286 3.0 13.0 0.00 0.93 0.00 68 1019.4
20260502160814 69 21 3.0 13.0 0.00 0.93 0.00 68 1019.4
20260502160750 69 324 3.0 13.0 0.00 0.93 0.00 65 1019.3
20260502160649 69 351 3.0 13.0 0.00 0.93 0.00 67 1019.3
20260502160549 69 314 3.0 13.0 0.00 0.93 0.00 67 1019.3
20260502160536 68 327 3.0 13.0 0.00 0.93 0.00 68 1019.3
20260502160443 69 62 3.0 13.0 0.00 0.93 0.00 69 1019.3
20260502160417 68 336 3.0 13.0 0.00 0.93 0.00 68 1019.3
20260502160228 68 27 3.0 13.0 0.00 0.93 0.00 70 1019.4
20260502160130 68 115 3.0 9.0 0.00 0.93 0.00 70 1019.4
20260502152322 67 45 3.0 8.0 0.00 0.93 0.00 71 1019.2
20260502152306 67 5 3.0 8.0 0.00 0.93 0.00 71 1019.2
20260502152252 66 34 4.0 11.0 0.00 0.93 0.00 73 1019.2
20260502152222 67 1 4.0 8.0 0.00 0.93 0.00 71 1019.2
20260502152136 67 3 4.0 8.0 0.00 0.93 0.00 73 1019.1
20260502152017 66 32 4.0 8.0 0.00 0.93 0.00 74 1019.2
20260502151917 66 25 4.0 8.0 0.00 0.93 0.00 73 1019.2
20260502151912 66 34 4.0 11.0 0.00 0.93 0.00 73 1019.2
20260502151707 66 20 4.0 11.0 0.00 0.93 0.00 73 1019.2
20260502151607 66 1 4.0 11.0 0.00 0.93 0.00 73 1019.2
20260502151507 66 39 4.0 11.0 0.00 0.93 0.00 74 1019.2
20260502151401 66 19 4.0 11.0 0.00 0.93 0.00 74 1019.2
20260502151303 66 39 3.0 11.0 0.00 0.93 0.00 73 1019.2
20260502151202 66 43 3.0 11.0 0.00 0.93 0.00 73 1019.2
20260502151102 66 345 3.0 11.0 0.00 0.93 0.00 73 1019.3
20260502151001 66 121 3.0 11.0 0.00 0.93 0.00 73 1019.3
20260502150859 66 40 3.0 11.0 0.00 0.93 0.00 73 1019.2
20260502150801 66 51 3.0 8.0 0.00 0.93 0.00 73 1019.3
20260502150755 66 49 3.0 8.0 0.00 0.93 0.00 73 1019.3
20260502150658 66 288 3.0 11.0 0.00 0.93 0.00 73 1019.4
20260502150558 66 309 3.0 11.0 0.00 0.93 0.00 74 1019.4
20260502150459 66 294 4.0 12.0 0.00 0.93 0.00 73 1019.3
20260502150359 65 23 4.0 12.0 0.00 0.93 0.00 74 1019.3
20260502150300 65 4 4.0 12.0 0.00 0.93 0.00 74 1019.3
20260502150254 65 9 4.0 12.0 0.00 0.93 0.00 74 1019.3
20260502150200 65 2 4.0 12.0 0.00 0.93 0.00 75 1019.3
20260502140124 62 31 2.0 4.0 0.00 0.96 0.00 81 1019.0
20260502130652 57 10 2.0 4.0 0.00 0.96 0.00 89 1018.3
20260502130613 57 19 2.0 4.0 0.00 0.96 0.00 90 1018.3
20260502130452 57 52 2.0 4.0 0.00 0.96 0.00 90 1018.3
20260502130352 57 359 2.0 4.0 0.00 0.96 0.00 90 1018.2
20260502130252 56 6 2.0 4.0 0.00 0.96 0.00 90 1018.2
20260502130152 56 7 2.0 4.0 0.00 0.96 0.00 90 1018.2
20260502123809 55 3 2.0 3.0 0.00 0.96 0.00 92 1017.8
20260502123709 55 40 2.0 4.0 0.00 0.96 0.00 92 1017.8
20260502123609 55 43 2.0 4.0 0.00 0.96 0.00 92 1017.8
20260502123545 55 18 2.0 6.0 0.00 0.96 0.00 92 1017.8
20260502123454 55 6 2.0 4.0 0.00 0.96 0.00 92 1017.8
20260502123428 55 309 2.0 6.0 0.00 0.96 0.00 92 1017.8
20260502123255 55 29 2.0 6.0 0.00 0.96 0.00 92 1017.8
20260502123154 55 14 2.0 6.0 0.00 0.96 0.00 92 1017.8
20260502123054 55 352 2.0 6.0 0.00 0.96 0.00 92 1017.8
20260502122954 55 35 2.0 6.0 0.00 0.96 0.00 92 1017.8
20260502122852 55 307 2.0 6.0 0.00 0.96 0.00 92 1017.7
20260502122812 55 19 2.0 6.0 0.00 0.96 0.00 92 1017.7
20260502122753 55 355 2.0 6.0 0.00 0.96 0.00 92 1017.7
20260502122653 55 359 2.0 6.0 0.00 0.96 0.00 93 1017.7
20260502122543 55 6 2.0 6.0 0.00 0.96 0.00 93 1017.7
20260502122440 54 10 2.0 6.0 0.00 0.96 0.00 93 1017.7
20260502122309 54 41 2.0 4.0 0.00 0.96 0.00 93 1017.7
20260502122225 54 19 2.0 4.0 0.00 0.96 0.00 93 1017.5
20260502122109 54 321 2.0 4.0 0.00 0.97 0.00 93 1017.5
20260502122010 54 34 2.0 4.0 0.00 0.97 0.00 93 1017.5
20260502121855 54 180 1.0 3.0 0.00 0.97 0.00 93 1017.5
20260502121809 54 38 1.0 3.0 0.00 0.97 0.00 93 1017.5
20260502121755 54 32 1.0 3.0 0.00 0.97 0.00 93 1017.5
20260502121655 54 4 1.0 2.0 0.00 0.97 0.00 93 1017.5
20260502121554 54 19 1.0 2.0 0.00 0.97 0.00 93 1017.5
20260502121453 54 358 1.0 4.0 0.00 0.98 0.00 93 1017.5
20260502121353 54 30 2.0 4.0 0.00 0.98 0.00 93 1017.5
20260502121308 54 18 2.0 4.0 0.00 0.98 0.00 93 1017.5
20260502121253 54 4 2.0 4.0 0.00 0.98 0.00 93 1017.5
20260502121154 54 310 2.0 4.0 0.00 0.98 0.00 93 1017.5
20260502121054 54 5 2.0 4.0 0.00 0.98 0.00 93 1017.4
20260502120940 54 18 2.0 4.0 0.00 0.98 0.00 93 1017.4
20260502120824 54 10 2.0 4.0 0.00 0.99 0.00 93 1017.4
20260502120809 54 7 2.0 4.0 0.00 0.99 0.00 93 1017.4
20260502120709 54 7 2.0 4.0 0.00 1.00 0.00 93 1017.4
20260502120610 53 355 2.0 4.0 0.00 1.00 0.00 93 1017.4
20260502120510 53 28 1.0 4.0 0.00 1.00 0.00 93 1017.4
20260502120410 53 9 1.0 4.0 0.00 1.00 0.00 93 1017.4
20260502120310 53 52 1.0 4.0 0.00 1.00 0.00 93 1017.4
20260502120252 53 121 1.0 4.0 0.00 1.00 0.00 93 1017.3
20260502120209 53 340 1.0 4.0 0.00 1.00 0.00 93 1017.3
20260502115853 53 293 1.0 4.0 0.00 1.00 0.00 93 1017.3
20260502115753 53 10 1.0 4.0 0.00 1.00 0.00 93 1017.2
20260502115653 53 25 2.0 4.0 0.00 1.00 0.00 93 1017.2
20260502115554 53 18 2.0 4.0 0.00 1.00 0.00 93 1017.2
20260502115454 53 10 2.0 4.0 0.00 1.00 0.00 93 1017.2
20260502115353 53 293 2.0 4.0 0.00 1.00 0.00 93 1017.2
20260502115254 53 19 2.0 4.0 0.00 1.00 0.00 93 1017.2
20260502115140 53 32 2.0 4.0 0.00 1.00 0.00 93 1017.1
20260502115025 53 21 2.0 4.0 0.00 1.00 0.00 93 1017.1
20260502114950 53 346 2.0 4.0 0.00 1.00 0.00 93 1017.1
20260502114925 53 10 2.0 4.0 0.00 1.00 0.00 93 1017.1
20260502114829 53 32 2.0 4.0 0.00 1.00 0.00 93 1017.1
20260502114710 53 311 2.0 4.0 0.00 1.00 0.00 93 1017.1
20260502114610 53 357 2.0 4.0 0.00 1.00 0.00 93 1017.1
20260502114510 53 345 2.0 4.0 0.00 1.00 0.00 93 1017.0
20260502114410 53 33 2.0 3.0 0.00 1.00 0.00 93 1016.9
20260502114240 53 28 2.0 3.0 0.00 1.00 0.00 93 1016.9
20260502114223 53 8 2.0 3.0 0.00 1.00 0.00 93 1016.9
20260502114140 53 359 1.0 3.0 0.00 1.00 0.00 93 1016.9
20260502114040 53 34 1.0 3.0 0.00 1.00 0.00 93 1016.9
20260502113940 53 8 1.0 3.0 0.00 1.00 0.00 93 1016.9
20260502113825 53 20 1.0 3.0 0.00 1.00 0.00 93 1016.9
20260502113725 53 2 1.0 2.0 0.00 1.00 0.00 92 1016.9
20260502113625 53 22 1.0 3.0 0.00 1.00 0.00 92 1016.9
20260502113525 53 347 1.0 3.0 0.00 1.00 0.00 92 1016.9
20260502113437 53 353 1.0 3.0 0.00 1.00 0.00 92 1016.8
20260502113425 53 30 1.0 3.0 0.00 1.00 0.00 92 1016.8
20260502113330 53 12 1.0 3.0 0.00 1.00 0.00 92 1016.8
20260502113314 53 24 1.0 3.0 0.00 1.00 0.00 92 1016.8
20260502113125 53 8 1.0 3.0 0.00 1.00 0.00 92 1016.8
20260502113025 53 45 1.0 3.0 0.00 1.00 0.00 92 1016.7
20260502112926 53 321 2.0 4.0 0.00 1.00 0.00 92 1016.7
20260502112825 53 27 2.0 4.0 0.00 1.00 0.00 92 1016.8
20260502112726 53 350 2.0 4.0 0.00 1.00 0.00 92 1016.8
20260502112709 53 332 2.0 4.0 0.00 1.00 0.00 92 1016.8
20260502112625 53 348 2.0 4.0 0.00 1.00 0.00 92 1016.8
20260502112525 53 301 2.0 4.0 0.00 1.00 0.00 92 1016.8
20260502112356 53 14 2.0 4.0 0.00 1.00 0.00 92 1016.8
20260502112256 53 22 2.0 4.0 0.00 1.00 0.00 91 1016.7
20260502112209 54 25 2.0 4.0 0.00 1.00 0.00 91 1016.7
20260502112156 54 23 2.0 4.0 0.00 1.00 0.00 91 1016.7
20260502112055 54 30 2.0 4.0 0.00 1.00 0.00 91 1016.7
20260502111941 54 53 2.0 4.0 0.00 1.00 0.00 91 1016.7
20260502111931 54 36 2.0 4.0 0.00 1.00 0.00 90 1016.6
20260502111840 54 310 1.0 4.0 0.00 1.00 0.00 91 1016.7
20260502111816 54 20 1.0 4.0 0.00 1.00 0.00 90 1016.6
20260502111640 54 14 1.0 3.0 0.00 1.00 0.00 90 1016.6
20260502111526 54 336 1.0 3.0 0.00 1.00 0.00 90 1016.6
20260502111425 54 23 1.0 2.0 0.00 1.00 0.00 90 1016.6
20260502111310 54 17 1.0 2.0 0.00 1.00 0.00 90 1016.6
20260502111211 54 323 1.0 2.0 0.00 1.00 0.00 90 1016.6
20260502111111 54 47 1.0 2.0 0.00 1.00 0.00 89 1016.6
20260502111011 54 24 1.0 2.0 0.00 1.00 0.00 89 1016.5
20260502110910 54 323 1.0 2.0 0.00 1.00 0.00 89 1016.5
20260502110756 54 38 1.0 2.0 0.00 1.00 0.00 89 1016.4
20260502110657 54 10 1.0 4.0 0.00 1.00 0.00 89 1016.4
20260502110554 54 347 2.0 4.0 0.00 1.00 0.00 89 1016.4
20260502110440 54 11 2.0 4.0 0.00 1.00 0.00 89 1016.4
20260502110326 54 359 2.0 4.0 0.00 1.00 0.00 89 1016.3
20260502110226 54 8 2.0 4.0 0.00 1.00 0.00 89 1016.3
20260502110126 54 44 2.0 4.0 0.00 1.00 0.00 89 1016.3
20260502110025 54 25 2.0 5.0 0.00 1.00 0.00 89 1016.3
20260502105910 54 24 2.0 5.0 0.00 1.00 0.00 89 1016.3
20260502105811 54 313 2.0 5.0 0.00 1.00 0.00 89 1016.3
20260502105711 54 20 2.0 5.0 0.00 1.00 0.00 89 1016.3
20260502105643 54 311 2.0 5.0 0.00 1.00 0.00 89 1016.2
20260502105602 54 327 2.0 5.0 0.00 1.00 0.00 89 1016.2
20260502105454 54 16 2.0 5.0 0.00 1.00 0.00 89 1016.2
20260502105355 54 17 2.0 5.0 0.00 1.00 0.00 89 1016.2
20260502105250 54 24 2.0 5.0 0.00 1.00 0.00 89 1016.2
20260502105140 54 336 2.0 5.0 0.00 1.00 0.00 89 1016.2
20260502105026 54 30 2.0 4.0 0.00 1.00 0.00 89 1016.2
20260502104911 54 8 2.0 5.0 0.00 1.00 0.00 89 1016.2
20260502104740 54 9 2.0 5.0 0.00 1.00 0.00 89 1016.2
20260502104626 54 4 2.0 5.0 0.00 1.00 0.00 89 1016.2
20260502104526 54 4 2.0 9.0 0.00 1.00 0.00 89 1016.2
20260502104425 54 359 2.0 9.0 0.00 1.00 0.00 90 1016.1
20260502104320 54 50 2.0 9.0 0.00 1.00 0.00 90 1016.2
20260502104220 54 55 2.0 9.0 0.00 1.00 0.00 90 1016.2
20260502104119 54 28 2.0 9.0 0.00 1.00 0.00 90 1016.2
20260502104113 54 15 2.0 9.0 0.00 1.00 0.00 90 1016.2
20260502104020 54 39 2.0 9.0 0.00 1.00 0.00 90 1016.2
20260502103908 54 303 2.0 9.0 0.00 1.00 0.00 90 1016.3
20260502103807 54 19 2.0 9.0 0.00 1.00 0.00 90 1016.3
20260502103656 54 29 2.0 9.0 0.00 1.00 0.00 90 1016.3
20260502103600 54 20 2.0 9.0 0.00 1.00 0.00 91 1016.2
20260502103555 54 8 2.0 9.0 0.00 1.00 0.00 91 1016.3
20260502103454 54 177 2.0 4.0 0.00 1.00 0.00 91 1016.3
20260502103354 54 20 2.0 4.0 0.00 1.00 0.00 91 1016.3
20260502103241 54 19 2.0 4.0 0.00 1.00 0.00 91 1016.2
20260502103141 53 9 2.0 4.0 0.00 1.00 0.00 91 1016.2
20260502103055 53 18 2.0 4.0 0.00 1.00 0.00 91 1016.2
20260502103041 53 302 2.0 4.0 0.00 1.00 0.00 91 1016.2
20260502102941 53 1 2.0 4.0 0.00 1.00 0.00 92 1016.2
20260502102841 53 18 1.0 4.0 0.00 1.00 0.00 92 1016.1
20260502102726 53 3 1.0 3.0 0.00 1.00 0.00 92 1016.1
20260502102627 53 25 1.0 3.0 0.00 1.00 0.00 92 1016.1
20260502102555 53 38 1.0 3.0 0.00 1.00 0.00 92 1016.1
20260502102525 53 42 2.0 4.0 0.00 1.00 0.00 92 1016.1
20260502102411 54 43 2.0 4.0 0.00 1.00 0.00 92 1016.1
20260502102311 54 32 2.0 4.0 0.00 1.00 0.00 92 1016.1
20260502102211 54 4 2.0 4.0 0.00 1.00 0.00 92 1016.1
20260502102111 54 47 2.0 4.0 0.00 1.00 0.00 92 1016.0
20260502102055 54 44 2.0 4.0 0.00 1.00 0.00 92 1016.0
20260502102011 54 35 2.0 4.0 0.00 1.00 0.00 92 1016.0
20260502101912 54 16 2.0 4.0 0.00 1.00 0.00 92 1016.0
20260502101811 54 24 2.0 4.0 0.00 1.00 0.00 92 1016.0
20260502101711 54 29 2.0 4.0 0.00 1.00 0.00 92 1016.0
20260502101556 54 35 2.0 4.0 0.00 1.00 0.00 92 1015.9
20260502101457 54 14 2.0 3.0 0.00 1.00 0.00 92 1015.9
20260502101356 54 15 2.0 3.0 0.00 1.00 0.00 92 1015.8
20260502101256 54 49 2.0 4.0 0.00 1.00 0.00 92 1015.8
20260502101156 54 2 2.0 4.0 0.00 1.00 0.00 92 1015.7
20260502101057 54 46 2.0 4.0 0.00 1.00 0.00 92 1015.7
20260502100957 54 7 2.0 4.0 0.00 1.00 0.00 92 1015.7
20260502100856 54 17 2.0 4.0 0.00 1.00 0.00 92 1015.7
20260502100756 54 356 2.0 4.0 0.00 1.00 0.00 92 1015.7
20260502100655 54 30 1.0 4.0 0.00 1.00 0.00 92 1015.7
20260502100556 54 30 1.0 4.0 0.00 1.00 0.00 92 1015.7
20260502100541 54 312 1.0 4.0 0.00 1.00 0.00 92 1015.7
20260502100427 54 13 1.0 4.0 0.00 1.00 0.00 92 1015.7
20260502100327 54 25 1.0 4.0 0.00 1.00 0.00 92 1015.6
20260502100226 54 339 1.0 3.0 0.00 1.00 0.00 92 1015.6
20260502100126 54 33 1.0 3.0 0.00 1.00 0.00 92 1015.6
20260502091421 55 18 3.0 7.0 0.00 1.00 0.00 91 1015.2
20260502091320 55 22 3.0 7.0 0.00 1.00 0.00 91 1015.2
20260502091221 55 32 2.0 5.0 0.00 1.00 0.00 92 1015.2
20260502091115 55 7 2.0 5.0 0.00 1.00 0.00 92 1015.2
20260502091015 55 318 3.0 5.0 0.00 1.00 0.00 92 1015.1
20260502090932 55 319 2.0 5.0 0.00 1.00 0.00 92 1015.1
20260502090908 55 10 2.0 5.0 0.00 1.00 0.00 92 1015.1
20260502090809 55 34 2.0 5.0 0.00 1.00 0.00 93 1015.1
20260502090657 55 31 2.0 4.0 0.00 1.00 0.00 93 1015.0
20260502090557 55 340 2.0 4.0 0.00 1.00 0.00 93 1014.9
20260502090456 55 32 2.0 4.0 0.00 1.00 0.00 93 1014.8
20260502090425 56 13 2.0 4.0 0.00 1.00 0.00 93 1014.7
20260502090358 56 14 2.0 4.0 0.00 1.00 0.00 93 1014.7
20260502090258 56 11 2.0 5.0 0.00 1.00 0.00 93 1014.7
20260502090157 56 43 2.0 6.0 0.00 1.00 0.00 93 1014.6
20260502090134 56 348 2.0 7.0 0.00 1.00 0.00 92 1014.5
20260502071443 57 27 2.0 7.0 0.00 1.00 0.00 95 1014.7
20260502071426 57 52 2.0 7.0 0.00 1.00 0.00 95 1014.7
20260502071343 57 31 2.0 7.0 0.00 1.00 0.00 94 1014.7
20260502071244 57 27 2.0 7.0 0.00 1.00 0.00 94 1014.7
20260502071129 57 32 2.0 7.0 0.00 1.00 0.00 94 1014.7
20260502071028 57 343 2.0 7.0 0.00 1.00 0.00 94 1014.7
20260502070928 57 31 2.0 7.0 0.00 1.00 0.00 94 1014.6
20260502070921 57 14 2.0 7.0 0.00 1.00 0.00 94 1014.6
20260502070828 57 357 2.0 7.0 0.00 1.00 0.00 94 1014.6
20260502070728 57 343 2.0 7.0 0.00 1.00 0.00 94 1014.6
20260502070622 57 18 3.0 7.0 0.00 1.00 0.00 94 1014.6
20260502070522 57 28 3.0 7.0 0.00 1.00 0.00 94 1014.6
20260502070423 57 329 3.0 7.0 0.00 1.00 0.00 94 1014.6
20260502070323 57 35 3.0 8.0 0.00 1.00 0.00 94 1014.6
20260502070223 57 27 3.0 8.0 0.00 1.00 0.00 94 1014.6
20260502070122 57 31 3.0 8.0 0.00 1.00 0.00 94 1014.7
20260502070022 57 23 3.0 8.0 0.00 1.00 0.00 94 1014.7
20260502065922 57 19 3.0 8.0 0.00 1.00 0.00 94 1014.7
20260502065914 57 25 3.0 8.0 0.00 1.00 0.00 94 1014.7
20260502065822 57 8 3.0 8.0 0.00 1.00 0.00 95 1014.7
20260502065722 57 27 3.0 8.0 0.00 1.00 0.00 95 1014.6
20260502065616 57 26 3.0 8.0 0.00 1.00 0.00 95 1014.6
20260502065517 57 16 3.0 8.0 0.00 1.00 0.00 95 1014.6
20260502065416 57 26 3.0 8.0 0.00 1.00 0.00 95 1014.6
20260502065316 57 9 2.0 5.0 0.00 1.00 0.00 95 1014.5
20260502065213 57 76 3.0 6.0 0.00 1.00 0.00 95 1014.5
20260502065131 57 30 3.0 6.0 0.00 1.00 0.00 95 1014.4
20260502065114 57 40 3.0 6.0 0.00 1.00 0.00 95 1014.5
20260502065015 57 341 3.0 6.0 0.00 1.00 0.00 95 1014.4
20260502064904 57 6 3.0 6.0 0.00 1.00 0.00 95 1014.4
20260502064804 57 26 3.0 7.0 0.00 1.00 0.00 95 1014.5
20260502064704 57 25 3.0 7.0 0.00 1.00 0.00 95 1014.5
20260502064604 57 6 3.0 7.0 0.00 1.00 0.00 95 1014.5
20260502064459 57 30 3.0 7.0 0.00 1.00 0.00 95 1014.5
20260502064409 57 23 3.0 7.0 0.00 1.00 0.00 95 1014.5
20260502064357 57 26 3.0 7.0 0.00 1.00 0.00 95 1014.6
20260502064257 57 22 3.0 7.0 0.00 1.00 0.00 95 1014.6
20260502064157 57 358 3.0 7.0 0.00 1.00 0.00 95 1014.6
20260502064057 57 38 3.0 9.0 0.00 1.00 0.00 95 1014.6
20260502063957 57 356 3.0 9.0 0.00 1.00 0.00 95 1014.6
20260502063909 57 359 3.0 9.0 0.00 1.00 0.00 95 1014.6
20260502063857 56 39 3.0 9.0 0.00 1.00 0.00 95 1014.6
20260502063758 56 2 3.0 9.0 0.00 1.00 0.00 95 1014.6
20260502063657 56 26 3.0 9.0 0.00 1.00 0.00 95 1014.6
20260502063552 56 26 3.0 9.0 0.00 1.00 0.00 95 1014.6
20260502063453 56 28 3.0 9.0 0.00 1.00 0.00 95 1014.5
20260502063409 56 32 3.0 9.0 0.00 1.00 0.00 95 1014.5
20260502063353 56 16 3.0 9.0 0.00 1.00 0.00 95 1014.5
20260502063253 56 345 3.0 9.0 0.00 1.00 0.00 95 1014.5
20260502063153 56 52 3.0 9.0 0.00 1.00 0.00 95 1014.5
20260502063046 56 46 3.0 7.0 0.00 1.00 0.00 95 1014.4
20260502062946 56 350 3.0 6.0 0.00 1.00 0.00 95 1014.4
20260502062904 56 23 3.0 6.0 0.00 1.00 0.00 95 1014.4
20260502062847 56 288 3.0 9.0 0.00 1.00 0.00 95 1014.4
20260502062735 56 26 3.0 9.0 0.00 1.00 0.00 95 1014.4
20260502062635 56 24 3.0 9.0 0.00 1.00 0.00 95 1014.4
20260502062535 56 71 3.0 9.0 0.00 1.00 0.00 95 1014.4
20260502062423 56 42 3.0 9.0 0.00 1.00 0.00 95 1014.4
20260502062358 56 10 3.0 9.0 0.00 1.00 0.00 95 1014.4
20260502062323 56 27 3.0 9.0 0.00 1.00 0.00 95 1014.4
20260502062223 56 304 3.0 9.0 0.00 1.00 0.00 95 1014.4
20260502062123 56 6 3.0 9.0 0.00 1.00 0.00 95 1014.3
20260502062023 56 356 3.0 9.0 0.00 1.00 0.00 95 1014.3
20260502061917 56 15 3.0 9.0 0.00 1.00 0.00 95 1014.3
20260502061857 56 21 3.0 9.0 0.00 1.00 0.00 95 1014.2
20260502061814 56 34 3.0 9.0 0.00 1.00 0.00 95 1014.2
20260502061713 56 17 3.0 9.0 0.00 1.00 0.00 95 1014.2
20260502061553 56 28 3.0 9.0 0.00 1.00 0.00 95 1014.2
20260502061446 56 72 3.0 9.0 0.00 1.00 0.00 95 1014.2
20260502061346 56 3 3.0 9.0 0.00 1.00 0.00 95 1014.2
20260502061241 56 13 4.0 9.0 0.00 1.00 0.00 95 1014.2
20260502061135 56 29 4.0 9.0 0.00 1.00 0.00 95 1014.2
20260502061035 56 356 4.0 7.0 0.00 1.00 0.00 95 1014.2
20260502060929 56 23 4.0 7.0 0.00 1.00 0.00 95 1014.2
20260502060851 56 31 4.0 7.0 0.00 1.00 0.00 95 1014.2
20260502060823 56 25 4.0 7.0 0.00 1.00 0.00 95 1014.2
20260502060711 56 31 4.0 7.0 0.00 1.00 0.00 95 1014.1
20260502060611 56 26 4.0 7.0 0.00 1.00 0.00 95 1014.2
20260502060511 56 33 4.0 7.0 0.00 1.00 0.00 95 1014.2
20260502060359 56 5 4.0 7.0 0.00 1.00 0.00 95 1014.2
20260502060346 56 4 4.0 11.0 0.00 1.00 0.00 95 1014.2
20260502060258 56 1 4.0 11.0 0.00 1.00 0.00 95 1014.2
20260502060158 56 22 4.0 11.0 0.00 1.00 0.00 95 1014.2
20260502060108 56 7 3.0 11.0 0.00 1.00 0.00 95 1014.2
20260502060058 56 312 4.0 11.0 0.00 1.00 0.00 95 1014.2
20260502055957 56 43 4.0 11.0 0.00 1.00 0.00 95 1014.2
20260502055951 56 22 3.0 11.0 0.00 1.00 0.00 95 1014.2
20260502055753 56 343 3.0 11.0 0.00 1.00 0.00 95 1014.2
20260502055653 56 22 3.0 11.0 0.00 1.00 0.00 95 1014.2
20260502055613 56 36 4.0 11.0 0.00 1.00 0.00 95 1014.2
20260502055553 56 45 4.0 11.0 0.00 1.00 0.00 95 1014.1
20260502055457 56 359 4.0 11.0 0.00 1.00 0.00 95 1014.1
20260502055452 56 38 4.0 11.0 0.00 1.00 0.00 95 1014.2
20260502055253 56 50 4.0 9.0 0.00 1.00 0.00 95 1014.2
20260502055153 56 21 4.0 9.0 0.00 1.00 0.00 95 1014.2
20260502055105 56 30 4.0 9.0 0.00 1.00 0.00 96 1014.2
20260502055053 56 26 4.0 9.0 0.00 1.00 0.00 95 1014.2
20260502054958 56 34 4.0 9.0 0.00 1.00 0.00 96 1014.2
20260502054952 56 43 4.0 9.0 0.00 1.00 0.00 96 1014.2
20260502054753 56 24 4.0 9.0 0.00 1.00 0.00 96 1014.2
20260502054653 56 28 4.0 9.0 0.00 1.00 0.00 96 1014.2
20260502054601 56 23 4.0 9.0 0.00 1.00 0.00 96 1014.2
20260502054553 56 25 4.0 9.0 0.00 1.00 0.00 96 1014.2
20260502054453 56 88 4.0 9.0 0.00 1.00 0.00 96 1014.2
20260502054446 56 18 4.0 9.0 0.00 1.00 0.00 96 1014.2
20260502054253 56 348 4.0 8.0 0.00 1.00 0.00 96 1014.3
20260502054153 56 30 4.0 8.0 0.00 1.00 0.00 96 1014.2
20260502054101 56 19 4.0 8.0 0.00 1.00 0.00 96 1014.3
20260502054053 56 15 4.0 8.0 0.00 1.00 0.00 96 1014.3
20260502053953 56 24 4.0 8.0 0.00 1.00 0.00 96 1014.3
20260502053945 56 7 4.0 8.0 0.00 1.00 0.00 96 1014.3
20260502053753 56 12 4.0 8.0 0.00 1.00 0.00 96 1014.3
20260502053648 56 20 3.0 8.0 0.00 1.00 0.00 96 1014.3
20260502053547 56 32 3.0 8.0 0.00 1.00 0.00 97 1014.3
20260502053447 56 9 3.0 6.0 0.00 1.00 0.00 97 1014.4
20260502053348 56 20 3.0 6.0 0.00 1.00 0.00 97 1014.4
20260502053340 56 4 3.0 6.0 0.00 1.00 0.00 97 1014.4
20260502053248 56 46 3.0 6.0 0.00 1.00 0.00 97 1014.4
20260502053147 56 30 3.0 6.0 0.00 1.00 0.00 97 1014.4
20260502053045 56 53 3.0 5.0 0.00 1.00 0.00 97 1014.5
20260502052944 56 26 3.0 5.0 0.00 1.00 0.00 97 1014.5
20260502052843 56 32 3.0 5.0 0.00 1.00 0.00 97 1014.5
20260502052742 56 15 3.0 5.0 0.00 1.00 0.00 97 1014.5
20260502052642 56 48 3.0 5.0 0.00 1.00 0.00 97 1014.6
20260502052542 56 33 3.0 5.0 0.00 1.00 0.00 97 1014.6
20260502052429 56 78 3.0 5.0 0.00 1.00 0.00 97 1014.6
20260502052324 56 9 3.0 5.0 0.00 1.00 0.00 97 1014.6
20260502052224 56 44 3.0 5.0 0.00 1.00 0.00 97 1014.6
20260502052124 56 26 3.0 5.0 0.00 1.00 0.00 97 1014.6
20260502052017 56 68 2.0 5.0 0.00 1.00 0.00 97 1014.7
20260502051912 56 41 3.0 6.0 0.00 1.00 0.00 97 1014.7
20260502051841 56 52 3.0 9.0 0.00 1.00 0.00 97 1014.7
20260502051805 56 19 3.0 9.0 0.00 1.00 0.00 97 1014.7
20260502051700 56 43 3.0 9.0 0.00 1.00 0.00 97 1014.7
20260502051544 56 46 3.0 9.0 0.00 1.00 0.00 97 1014.7
20260502051417 56 23 3.0 9.0 0.00 1.00 0.00 97 1014.7
20260502051340 56 6 3.0 9.0 0.00 1.00 0.00 97 1014.6
20260502051312 56 356 3.0 9.0 0.00 1.00 0.00 97 1014.6
20260502051211 56 57 4.0 9.0 0.00 1.00 0.00 97 1014.6
20260502051111 56 25 4.0 9.0 0.00 1.00 0.00 97 1014.6
20260502051011 56 38 4.0 9.0 0.00 1.00 0.00 97 1014.6
20260502050912 56 12 4.0 9.0 0.00 1.00 0.00 97 1014.5
20260502050841 56 37 4.0 9.0 0.00 1.00 0.00 97 1014.5
20260502050812 56 3 4.0 9.0 0.00 1.00 0.00 97 1014.5
20260502050712 56 13 4.0 9.0 0.00 1.00 0.00 97 1014.4
20260502050612 56 32 4.0 9.0 0.00 1.00 0.00 97 1014.4
20260502050512 56 37 3.0 9.0 0.00 1.00 0.00 97 1014.3
20260502050411 56 9 3.0 9.0 0.00 1.00 0.00 97 1014.2
20260502050340 56 18 3.0 9.0 0.00 1.00 0.00 97 1014.2
20260502050311 56 30 3.0 9.0 0.00 1.00 0.00 97 1014.2
20260502050207 56 48 3.0 7.0 0.00 1.00 0.00 97 1014.3
20260502050107 56 36 3.0 7.0 0.00 1.00 0.00 97 1014.3
20260502050101 56 13 3.0 8.0 0.00 1.00 1.00 97 1014.4
20260502050006 56 19 3.0 7.0 0.00 1.00 0.00 97 1014.4
20260502045946 56 37 3.0 8.0 0.00 1.00 1.00 97 1014.4
20260502045800 56 26 3.0 8.0 0.00 1.00 1.00 97 1014.4
20260502045700 56 15 3.0 8.0 0.00 1.00 1.00 97 1014.4
20260502045600 56 111 3.0 8.0 0.00 1.00 1.00 97 1014.3
20260502045454 56 22 4.0 8.0 0.00 1.00 1.00 97 1014.4
20260502045353 56 32 4.0 8.0 0.00 1.00 1.00 97 1014.4
20260502045334 56 24 4.0 8.0 0.00 1.00 1.00 97 1014.4
20260502045254 56 75 4.0 8.0 0.00 1.00 1.00 97 1014.3
20260502045154 56 20 4.0 8.0 0.00 1.00 1.00 97 1014.4
20260502045059 56 57 4.0 8.0 0.00 1.00 1.00 97 1014.3
20260502045048 56 31 4.0 8.0 0.00 1.00 1.00 97 1014.3
20260502044946 56 281 4.0 8.0 0.00 1.00 1.00 97 1014.3
20260502044940 56 57 4.0 8.0 0.00 1.00 1.00 97 1014.3
20260502044736 56 24 4.0 8.0 0.00 1.00 1.00 97 1014.3
20260502044630 56 46 3.0 8.0 0.00 1.00 1.00 98 1014.4
20260502044530 56 339 3.0 8.0 0.00 1.00 1.00 98 1014.4
20260502044423 56 27 3.0 8.0 0.00 1.00 1.00 98 1014.4
20260502044334 56 39 3.0 8.0 0.00 1.00 1.00 98 1014.4
20260502044318 56 27 3.0 8.0 0.00 1.00 1.00 98 1014.4
20260502044212 56 335 3.0 7.0 0.00 1.00 1.00 98 1014.4
20260502044100 56 23 3.0 7.0 0.00 1.00 1.00 98 1014.3
20260502044000 56 11 3.0 8.0 0.00 1.00 1.00 98 1014.3
20260502043900 56 5 3.0 8.0 0.00 1.00 1.00 98 1014.4
20260502043834 56 308 3.0 8.0 0.00 1.00 1.00 98 1014.3
20260502043800 56 13 3.0 8.0 0.00 1.00 1.00 98 1014.3
20260502043700 56 48 3.0 8.0 0.00 1.00 1.00 98 1014.3
20260502043600 56 318 3.0 8.0 0.00 1.00 1.00 98 1014.3
20260502043500 56 23 3.0 8.0 0.00 1.00 1.00 98 1014.3
20260502043400 56 20 3.0 8.0 0.00 1.00 1.00 98 1014.4
20260502043334 56 6 3.0 8.0 0.00 1.00 1.00 98 1014.4
20260502043300 56 12 3.0 8.0 0.00 1.00 1.00 98 1014.4
20260502043200 56 12 3.0 8.0 0.00 1.00 1.00 98 1014.4
20260502043100 56 19 3.0 8.0 0.00 1.00 1.00 98 1014.4
20260502043001 56 47 3.0 8.0 0.00 1.00 1.00 98 1014.4
20260502042900 56 29 3.0 7.0 0.00 1.00 1.00 98 1014.5
20260502042835 56 4 3.0 7.0 0.00 1.00 1.00 98 1014.5
20260502042831 56 1 3.0 8.0 0.00 1.00 1.00 98 1014.3
20260502042800 56 351 3.0 7.0 0.00 1.00 1.00 98 1014.5
20260502042709 56 25 3.0 7.0 0.00 1.00 1.00 98 1014.5
20260502042559 56 346 3.0 7.0 0.00 1.00 1.00 98 1014.5
20260502042500 56 25 3.0 8.0 0.00 1.00 1.00 98 1014.4
20260502042440 56 11 3.0 8.0 0.00 1.00 1.00 98 1014.4
20260502042300 56 259 3.0 8.0 0.00 1.00 1.00 98 1014.3
20260502042200 56 309 3.0 8.0 0.00 1.00 1.00 98 1014.3
20260502042106 56 344 3.0 8.0 0.00 1.00 1.00 98 1014.3
20260502042100 56 314 3.0 8.0 0.00 1.00 1.00 98 1014.3
20260502042001 56 332 3.0 8.0 0.00 1.00 1.00 98 1014.1
20260502041941 56 15 3.0 8.0 0.00 1.00 1.00 98 1014.3
20260502041800 56 25 3.0 8.0 0.00 1.00 1.00 98 1014.3
20260502041654 56 6 3.0 8.0 0.00 1.00 1.00 98 1014.3
20260502041555 56 255 3.0 8.0 0.00 1.00 1.00 98 1014.3
20260502041449 57 342 3.0 7.0 0.00 1.00 1.00 98 1014.3
20260502041342 57 22 3.0 7.0 0.00 1.00 1.00 98 1014.3
20260502041335 57 6 3.0 7.0 0.00 1.00 1.00 98 1014.3
20260502041242 57 31 3.0 7.0 0.00 1.00 1.00 98 1014.2
20260502041142 57 315 2.0 6.0 0.00 1.00 1.00 98 1014.1
20260502041042 57 312 3.0 6.0 0.00 1.00 1.00 98 1014.1
20260502040936 57 59 2.0 6.0 0.00 1.00 1.00 98 1014.2
20260502040836 57 49 2.0 6.0 0.00 1.00 1.00 98 1014.2
20260502040829 57 39 2.0 6.0 0.00 1.00 1.00 98 1014.2
20260502040737 57 5 2.0 6.0 0.00 1.00 1.00 98 1014.3
20260502040636 57 8 2.0 6.0 0.00 1.00 1.00 98 1014.3
20260502040536 57 5 2.0 6.0 0.00 1.00 1.00 98 1014.2
20260502040436 57 7 2.0 6.0 0.00 1.00 1.00 98 1014.3
20260502040336 57 27 2.0 6.0 0.00 1.00 1.00 98 1014.3
20260502040329 57 16 2.0 6.0 0.00 1.00 1.00 98 1014.3
20260502040236 57 43 2.0 6.0 0.00 1.00 1.00 98 1014.1
20260502040137 57 60 2.0 6.0 0.00 1.00 1.00 98 1014.2
20260502040030 57 49 2.0 5.0 0.00 1.00 1.00 98 1014.2
20260502035930 57 3 2.0 4.0 0.00 1.00 1.00 98 1014.2
20260502035831 57 13 2.0 4.0 0.00 1.00 1.00 98 1014.2
20260502035732 57 359 2.0 4.0 0.00 1.00 1.00 98 1014.2
20260502035631 57 27 2.0 4.0 0.00 1.00 1.00 98 1014.2
20260502035554 57 357 2.0 4.0 0.01 1.00 1.00 98 1014.3
20260502035531 57 25 2.0 4.0 0.00 1.00 1.00 98 1014.2
20260502035440 57 6 2.0 4.0 0.01 1.00 1.00 98 1014.3
20260502035435 57 357 2.0 4.0 0.01 1.00 1.00 98 1014.3
20260502035201 57 29 2.0 4.0 0.01 1.00 1.00 98 1014.3
20260502035101 57 58 2.0 4.0 0.02 1.00 1.00 98 1014.3
20260502035001 57 43 2.0 4.0 0.02 1.00 1.00 98 1014.3
20260502034900 57 41 2.0 4.0 0.02 1.00 1.00 98 1014.2
20260502034800 57 51 2.0 4.0 0.02 1.00 1.00 98 1014.1
20260502034700 57 350 2.0 4.0 0.02 1.00 1.00 98 1014.1
20260502034600 57 7 2.0 4.0 0.02 1.00 1.00 98 1014.1
20260502034501 57 28 2.0 5.0 0.02 1.00 1.00 98 1014.1
20260502034400 57 20 2.0 5.0 0.02 1.00 1.00 98 1014.1
20260502034300 57 40 2.0 5.0 0.02 1.00 1.00 98 1014.0
20260502034200 57 24 2.0 5.0 0.02 1.00 1.00 98 1014.0
20260502034100 57 36 2.0 5.0 0.02 1.00 1.00 98 1013.9
20260502034000 57 9 2.0 5.0 0.02 1.00 1.00 98 1013.8
20260502033900 57 33 2.0 5.0 0.02 1.00 1.00 98 1013.7
20260502033758 57 10 2.0 5.0 0.02 1.00 1.00 98 1013.6
20260502033749 57 33 2.0 5.0 0.02 1.00 1.00 98 1013.6
20260502033649 57 20 2.0 5.0 0.02 1.00 1.00 98 1013.5
20260502033549 57 33 3.0 5.0 0.02 1.00 1.00 98 1013.5
20260502033449 57 299 2.0 5.0 0.02 1.00 1.00 98 1013.5
20260502033345 57 8 2.0 5.0 0.02 1.00 1.00 98 1013.5
20260502033245 57 12 2.0 3.0 0.02 1.00 1.00 98 1013.5
20260502033145 57 272 2.0 3.0 0.02 1.00 1.00 98 1013.5
20260502033045 57 41 2.0 3.0 0.02 1.00 1.00 98 1013.5
20260502032945 57 327 2.0 3.0 0.02 1.00 1.00 98 1013.5
20260502032830 57 11 2.0 4.0 0.02 1.00 1.00 98 1013.5
20260502032744 57 46 2.0 4.0 0.02 1.00 1.00 98 1013.4
20260502032730 57 345 2.0 4.0 0.02 1.00 1.00 98 1013.4
20260502032615 57 25 2.0 4.0 0.02 1.00 1.00 98 1013.4
20260502032459 57 21 2.0 4.0 0.02 1.00 1.00 98 1013.4
20260502032359 57 39 2.0 5.0 0.02 1.00 1.00 98 1013.4
20260502032259 58 12 2.0 5.0 0.02 1.00 1.00 98 1013.3
20260502032244 58 48 2.0 5.0 0.02 1.00 1.00 98 1013.3
20260502032144 58 18 2.0 5.0 0.02 1.00 1.00 98 1013.2
20260502032044 58 29 2.0 5.0 0.02 1.00 1.00 98 1013.2
20260502031915 58 358 2.0 5.0 0.02 1.00 1.00 98 1013.2
20260502031801 58 346 2.0 5.0 0.02 1.00 1.00 98 1013.2
20260502031745 58 24 2.0 5.0 0.03 1.00 1.00 98 1013.2
20260502031701 58 22 2.0 5.0 0.03 1.00 1.00 98 1013.2
20260502031601 58 37 2.0 5.0 0.03 1.00 1.00 98 1013.3
20260502031500 58 350 2.0 5.0 0.03 1.00 1.00 98 1013.2
20260502031400 58 20 2.0 5.0 0.03 1.00 1.00 98 1013.2
20260502031300 58 12 2.0 5.0 0.03 1.00 1.00 98 1013.2
20260502031230 58 12 2.0 5.0 0.03 1.00 1.00 98 1013.2
20260502031146 58 41 2.0 5.0 0.03 1.00 1.00 98 1013.2
20260502031046 58 342 2.0 5.0 0.03 1.00 1.00 98 1013.1
20260502030946 58 9 2.0 5.0 0.03 1.00 1.00 98 1013.1
20260502030846 58 45 2.0 7.0 0.03 1.00 1.00 98 1013.0
20260502030731 58 27 2.0 7.0 0.03 1.00 1.00 98 1013.0
20260502030631 58 34 2.0 7.0 0.03 1.00 1.00 98 1012.9
20260502030507 58 42 2.0 7.0 0.03 1.00 1.00 98 1012.8
20260502030407 58 359 3.0 7.0 0.03 1.00 1.00 98 1012.8
20260502030307 58 20 3.0 7.0 0.03 1.00 1.00 98 1012.7
20260502030217 58 37 3.0 7.0 0.03 1.00 1.00 98 1012.6
20260502030207 58 52 3.0 8.0 0.03 1.00 1.00 98 1012.6
20260502030107 58 353 3.0 8.0 0.03 1.00 1.00 98 1012.5
20260502030002 58 9 3.0 8.0 0.03 1.00 1.00 98 1012.5
20260502025901 58 354 3.0 8.0 0.03 1.00 1.00 98 1012.4
20260502025801 58 29 3.0 8.0 0.03 1.00 1.00 98 1012.4
20260502025717 58 21 3.0 8.0 0.03 1.00 1.00 98 1012.3
20260502025701 58 23 3.0 8.0 0.03 1.00 1.00 98 1012.3
20260502025601 58 30 3.0 8.0 0.02 1.00 1.00 98 1012.3
20260502025501 58 358 3.0 8.0 0.02 1.00 1.00 98 1012.3
20260502025401 58 57 3.0 8.0 0.02 0.99 0.99 98 1012.3
20260502025301 58 40 2.0 8.0 0.02 0.99 0.99 98 1012.2
20260502025218 58 34 2.0 8.0 0.02 0.99 0.99 98 1012.2
20260502025201 58 18 2.0 7.0 0.02 0.99 0.99 98 1012.2
20260502025101 58 45 2.0 5.0 0.01 0.98 0.98 98 1012.2
20260502024946 58 25 2.0 5.0 0.01 0.98 0.98 98 1012.4
20260502024816 58 26 2.0 5.0 0.01 0.98 0.98 98 1012.4
20260502024712 58 19 2.0 5.0 0.01 0.98 0.98 98 1012.5
20260502024708 58 24 2.0 5.0 0.01 0.98 0.98 98 1012.5
20260502024601 58 43 2.0 5.0 0.01 0.98 0.98 98 1012.5
20260502024501 58 25 2.0 5.0 0.01 0.98 0.98 98 1012.5
20260502024401 58 6 3.0 5.0 0.01 0.98 0.98 98 1012.4
20260502024301 58 9 3.0 5.0 0.01 0.98 0.98 98 1012.4
20260502024212 58 37 3.0 5.0 0.01 0.98 0.98 98 1012.3
20260502024159 58 41 3.0 5.0 0.01 0.98 0.98 98 1012.3
20260502024100 58 356 3.0 5.0 0.01 0.98 0.98 98 1012.2
20260502024000 58 9 3.0 5.0 0.01 0.98 0.98 98 1012.3
20260502023859 58 36 3.0 5.0 0.00 0.98 0.98 98 1012.3
20260502023750 58 48 3.0 5.0 0.00 0.98 0.98 98 1012.4
20260502023706 58 39 3.0 5.0 0.00 0.98 0.98 98 1012.4
20260502023632 58 49 3.0 7.0 0.00 0.98 0.98 98 1012.4
20260502023514 58 54 3.0 7.0 0.00 0.98 0.98 98 1012.4
20260502023407 58 24 3.0 7.0 0.00 0.98 0.98 98 1012.4
20260502023307 58 20 3.0 7.0 0.00 0.98 0.98 98 1012.4
20260502023208 58 19 3.0 7.0 0.00 0.98 0.98 98 1012.3
20260502023139 58 20 2.0 4.0 0.00 0.98 0.98 98 1012.7
20260502023108 58 353 3.0 7.0 0.00 0.98 0.98 98 1012.3
20260502023025 58 40 2.0 7.0 0.00 0.98 0.98 98 1012.4
20260502022902 58 31 3.0 7.0 0.00 0.98 0.98 98 1012.4
20260502022810 58 11 2.0 7.0 0.00 0.98 0.98 98 1012.5
20260502022805 58 20 2.0 4.0 0.00 0.98 0.98 98 1012.7
20260502022602 58 37 2.0 4.0 0.00 0.98 0.98 98 1012.7
20260502022502 58 30 2.0 6.0 0.00 0.98 0.98 98 1012.8
20260502022401 58 28 2.0 6.0 0.00 0.98 0.98 98 1012.8
20260502022306 58 31 2.0 6.0 0.00 0.98 0.98 98 1012.8
20260502022202 58 39 2.0 6.0 0.00 0.98 0.98 98 1012.8
20260502022101 58 3 2.0 6.0 0.00 0.98 0.98 98 1012.8
20260502022001 58 285 2.0 6.0 0.00 0.98 0.98 98 1012.8